Wetterdaten: Dienstag, 30.01.2018
Datum Zeit Temp. Aussen Temp. o. S. +5cm Feuchte Auss BlattFeu 1 Luftdruck Regen Sonnenschein Regendauer Solar Windben Empfang
30.01.2018 00:00 5,2 C 3,9 C 2,8 C 94 % 15 lf 1027,6 hPa 0,0 l/m 0 min 0 min 0 W/m 13,5 km/h (3 Bft) 95,74 %
30.01.2018 00:02 5,2 C 3,9 C 2,8 C 94 % 15 lf 1027,7 hPa 0,0 l/m 0 min 0 min 0 W/m 15,8 km/h (3 Bft) 94,44 %
30.01.2018 00:04 5,2 C 3,9 C 2,8 C 94 % 15 lf 1027,6 hPa 0,0 l/m 0 min 0 min 0 W/m 13,5 km/h (3 Bft) 91,49 %
30.01.2018 00:07 5,2 C 3,9 C 2,8 C 94 % 15 lf 1027,6 hPa 0,0 l/m 0 min 0 min 0 W/m 20,3 km/h (4 Bft) 91,49 %
30.01.2018 00:08 5,1 C 4,4 C 2,8 C 94 % 15 lf 1027,7 hPa 0,0 l/m 0 min 0 min 0 W/m 20,3 km/h (4 Bft) 94,85 %
30.01.2018 00:10 5,1 C 3,9 C 2,8 C 94 % 15 lf 1027,7 hPa 0,0 l/m 0 min 0 min 0 W/m 11,3 km/h (2 Bft) 97,87 %
30.01.2018 00:12 5,1 C 3,9 C 2,8 C 94 % 15 lf 1027,8 hPa 0,0 l/m 0 min 0 min 0 W/m 15,8 km/h (3 Bft) 97,83 %
30.01.2018 00:14 5,1 C 3,9 C 2,8 C 94 % 15 lf 1027,9 hPa 0,0 l/m 0 min 0 min 0 W/m 13,5 km/h (3 Bft) 97,87 %
30.01.2018 00:16 5,1 C 3,9 C 2,8 C 94 % 15 lf 1027,9 hPa 0,0 l/m 0 min 0 min 0 W/m 11,3 km/h (2 Bft) 97,87 %
30.01.2018 00:18 5,1 C 3,9 C 2,8 C 94 % 15 lf 1027,9 hPa 0,0 l/m 0 min 0 min 0 W/m 9,0 km/h (2 Bft) 93,62 %
30.01.2018 00:20 5,1 C 3,9 C 2,8 C 94 % 15 lf 1028,0 hPa 0,0 l/m 0 min 0 min 0 W/m 11,3 km/h (2 Bft) 95,74 %
30.01.2018 00:22 5,0 C 3,9 C 2,8 C 94 % 15 lf 1028,0 hPa 0,0 l/m 0 min 0 min 0 W/m 6,8 km/h (2 Bft) 97,83 %
30.01.2018 00:24 5,0 C 3,9 C 2,8 C 94 % 15 lf 1028,0 hPa 0,0 l/m 0 min 0 min 0 W/m 11,3 km/h (2 Bft) 91,49 %
30.01.2018 00:26 5,0 C 3,9 C 2,8 C 94 % 15 lf 1027,9 hPa 0,0 l/m 0 min 0 min 0 W/m 9,0 km/h (2 Bft) 95,74 %
30.01.2018 00:28 5,0 C 3,9 C 2,8 C 94 % 15 lf 1027,9 hPa 0,0 l/m 0 min 0 min 0 W/m 9,0 km/h (2 Bft) 97,87 %
30.01.2018 00:30 4,9 C 3,9 C 2,2 C 94 % 15 lf 1028,0 hPa 0,0 l/m 0 min 0 min 0 W/m 6,8 km/h (2 Bft) 97,87 %
30.01.2018 00:32 4,9 C 3,9 C 2,2 C 94 % 15 lf 1028,0 hPa 0,0 l/m 0 min 0 min 0 W/m 13,5 km/h (3 Bft) 95,74 %
30.01.2018 00:34 4,9 C 3,9 C 2,8 C 94 % 15 lf 1028,0 hPa 0,0 l/m 0 min 0 min 0 W/m 9,0 km/h (2 Bft) 97,83 %
30.01.2018 00:36 4,9 C 3,3 C 2,2 C 94 % 14 lf 1028,2 hPa 0,0 l/m 0 min 0 min 0 W/m 9,0 km/h (2 Bft) 95,74 %
30.01.2018 00:38 4,9 C 3,3 C 2,2 C 94 % 15 lf 1028,2 hPa 0,0 l/m 0 min 0 min 0 W/m 9,0 km/h (2 Bft) 97,87 %
30.01.2018 00:40 4,8 C 3,3 C 2,2 C 94 % 15 lf 1028,3 hPa 0,0 l/m 0 min 0 min 0 W/m 9,0 km/h (2 Bft) 100,00 %
30.01.2018 00:42 4,8 C 3,9 C 2,2 C 94 % 15 lf 1028,4 hPa 0,0 l/m 0 min 0 min 0 W/m 9,0 km/h (2 Bft) 95,74 %
30.01.2018 00:44 4,8 C 3,9 C 2,2 C 94 % 15 lf 1028,4 hPa 0,0 l/m 0 min 0 min 0 W/m 11,3 km/h (2 Bft) 97,87 %
30.01.2018 00:46 4,8 C 3,3 C 2,2 C 94 % 15 lf 1028,4 hPa 0,0 l/m 0 min 0 min 0 W/m 9,0 km/h (2 Bft) 97,83 %
30.01.2018 00:48 4,7 C 3,9 C 2,2 C 94 % 15 lf 1028,3 hPa 0,0 l/m 0 min 0 min 0 W/m 13,5 km/h (3 Bft) 93,62 %
30.01.2018 00:50 4,7 C 3,9 C 2,2 C 94 % 15 lf 1028,4 hPa 0,0 l/m 0 min 0 min 0 W/m 11,3 km/h (2 Bft) 95,74 %
30.01.2018 00:52 4,7 C 3,9 C 2,2 C 94 % 14 lf 1028,4 hPa 0,0 l/m 0 min 0 min 0 W/m 9,0 km/h (2 Bft) 97,87 %
30.01.2018 00:54 4,7 C 3,3 C 2,2 C 94 % 14 lf 1028,4 hPa 0,0 l/m 0 min 0 min 0 W/m 9,0 km/h (2 Bft) 97,87 %
30.01.2018 00:56 4,7 C 3,3 C 2,2 C 94 % 14 lf 1028,5 hPa 0,0 l/m 0 min 0 min 0 W/m 6,8 km/h (2 Bft) 97,87 %
30.01.2018 00:58 4,7 C 3,3 C 2,2 C 94 % 15 lf 1028,5 hPa 0,0 l/m 0 min 0 min 0 W/m 6,8 km/h (2 Bft) 97,83 %
30.01.2018 01:00 4,7 C 3,3 C 1,7 C 94 % 15 lf 1028,5 hPa 0,0 l/m 0 min 0 min 0 W/m 9,0 km/h (2 Bft) 97,87 %
30.01.2018 01:02 4,6 C 3,3 C 1,7 C 94 % 15 lf 1028,4 hPa 0,0 l/m 0 min 0 min 0 W/m 9,0 km/h (2 Bft) 97,87 %
30.01.2018 01:04 4,6 C 3,3 C 2,2 C 94 % 15 lf 1028,5 hPa 0,0 l/m 0 min 0 min 0 W/m 9,0 km/h (2 Bft) 93,62 %
30.01.2018 01:06 4,6 C 3,3 C 2,2 C 94 % 15 lf 1028,5 hPa 0,0 l/m 0 min 0 min 0 W/m 9,0 km/h (2 Bft) 98,08 %
30.01.2018 01:08 4,6 C 3,3 C 1,7 C 94 % 14 lf 1028,4 hPa 0,0 l/m 0 min 0 min 0 W/m 6,8 km/h (2 Bft) 97,62 %
30.01.2018 01:10 4,5 C 3,3 C 1,7 C 94 % 15 lf 1028,5 hPa 0,0 l/m 0 min 0 min 0 W/m 9,0 km/h (2 Bft) 95,65 %
30.01.2018 01:12 4,5 C 3,3 C 1,7 C 94 % 15 lf 1028,5 hPa 0,0 l/m 0 min 0 min 0 W/m 9,0 km/h (2 Bft) 95,74 %
30.01.2018 01:14 4,4 C 3,3 C 1,7 C 94 % 15 lf 1028,6 hPa 0,0 l/m 0 min 0 min 0 W/m 9,0 km/h (2 Bft) 97,87 %
30.01.2018 01:16 4,4 C 3,3 C 1,7 C 94 % 15 lf 1028,5 hPa 0,0 l/m 0 min 0 min 0 W/m 9,0 km/h (2 Bft) 97,87 %
30.01.2018 01:18 4,4 C 3,3 C 1,7 C 94 % 15 lf 1028,5 hPa 0,0 l/m 0 min 0 min 0 W/m 11,3 km/h (2 Bft) 97,87 %
30.01.2018 01:20 4,4 C 3,3 C 1,7 C 94 % 15 lf 1028,6 hPa 0,0 l/m 0 min 0 min 0 W/m 6,8 km/h (2 Bft) 98,08 %
30.01.2018 01:22 4,4 C 2,8 C 1,7 C 94 % 15 lf 1028,6 hPa 0,0 l/m 0 min 0 min 0 W/m 6,8 km/h (2 Bft) 97,56 %
30.01.2018 01:24 4,4 C 2,8 C 1,7 C 94 % 15 lf 1028,6 hPa 0,0 l/m 0 min 0 min 0 W/m 4,5 km/h (1 Bft) 93,62 %
30.01.2018 01:26 4,4 C 2,8 C 1,7 C 94 % 15 lf 1028,6 hPa 0,0 l/m 0 min 0 min 0 W/m 6,8 km/h (2 Bft) 97,87 %
30.01.2018 01:28 4,3 C 2,8 C 1,7 C 94 % 15 lf 1028,6 hPa 0,0 l/m 0 min 0 min 0 W/m 6,8 km/h (2 Bft) 97,87 %
30.01.2018 01:30 4,3 C 2,8 C 1,7 C 94 % 15 lf 1028,5 hPa 0,0 l/m 0 min 0 min 0 W/m 9,0 km/h (2 Bft) 97,87 %
30.01.2018 01:32 4,3 C 2,8 C 1,1 C 94 % 15 lf 1028,5 hPa 0,0 l/m 0 min 0 min 0 W/m 6,8 km/h (2 Bft) 97,83 %
30.01.2018 01:34 4,3 C 2,8 C 1,7 C 94 % 15 lf 1028,5 hPa 0,0 l/m 0 min 0 min 0 W/m 6,8 km/h (2 Bft) 95,74 %
30.01.2018 01:36 4,2 C 2,8 C 1,1 C 94 % 15 lf 1028,5 hPa 0,0 l/m 0 min 0 min 0 W/m 4,5 km/h (1 Bft) 95,74 %
30.01.2018 01:38 4,2 C 2,8 C 1,1 C 94 % 15 lf 1028,5 hPa 0,0 l/m 0 min 0 min 0 W/m 6,8 km/h (2 Bft) 97,87 %
30.01.2018 01:40 4,2 C 2,8 C 1,1 C 94 % 15 lf 1028,5 hPa 0,0 l/m 0 min 0 min 0 W/m 4,5 km/h (1 Bft) 95,74 %
30.01.2018 01:42 4,2 C 2,8 C 1,1 C 94 % 15 lf 1028,5 hPa 0,0 l/m 0 min 0 min 0 W/m 4,5 km/h (1 Bft) 97,87 %
30.01.2018 01:44 4,2 C 2,2 C 1,1 C 94 % 15 lf 1028,5 hPa 0,0 l/m 0 min 0 min 0 W/m 6,8 km/h (2 Bft) 97,83 %
30.01.2018 01:46 4,1 C 2,8 C 1,1 C 94 % 15 lf 1028,6 hPa 0,0 l/m 0 min 0 min 0 W/m 11,3 km/h (2 Bft) 95,74 %
30.01.2018 01:48 4,1 C 2,8 C 1,1 C 94 % 15 lf 1028,6 hPa 0,0 l/m 0 min 0 min 0 W/m 9,0 km/h (2 Bft) 96,23 %
30.01.2018 01:50 4,1 C 2,8 C 1,1 C 94 % 15 lf 1028,6 hPa 0,0 l/m 0 min 0 min 0 W/m 11,3 km/h (2 Bft) 95,74 %
30.01.2018 01:52 4,1 C 2,8 C 1,7 C 94 % 15 lf 1028,6 hPa 0,0 l/m 0 min 0 min 0 W/m 9,0 km/h (2 Bft) 95,12 %
30.01.2018 01:54 4,0 C 2,8 C 1,7 C 94 % 15 lf 1028,6 hPa 0,0 l/m 0 min 0 min 0 W/m 9,0 km/h (2 Bft) 97,87 %
30.01.2018 01:56 4,0 C 2,8 C 1,7 C 94 % 15 lf 1028,6 hPa 0,0 l/m 0 min 0 min 0 W/m 6,8 km/h (2 Bft) 97,83 %
30.01.2018 01:58 4,0 C 2,8 C 1,7 C 94 % 15 lf 1028,7 hPa 0,0 l/m 0 min 0 min 0 W/m 9,0 km/h (2 Bft) 97,87 %
30.01.2018 02:00 4,0 C 2,8 C 1,7 C 94 % 15 lf 1028,6 hPa 0,0 l/m 0 min 0 min 0 W/m 6,8 km/h (2 Bft) 97,14 %
30.01.2018 02:02 4,0 C 2,8 C 1,1 C 94 % 15 lf 1028,6 hPa 0,0 l/m 0 min 0 min 0 W/m 2,3 km/h (1 Bft) 98,15 %
30.01.2018 02:04 4,0 C 2,8 C 1,1 C 95 % 15 lf 1028,6 hPa 0,0 l/m 0 min 0 min 0 W/m 0,0 km/h (0 Bft) 93,62 %
30.01.2018 02:06 3,9 C 2,8 C 1,1 C 95 % 15 lf 1028,6 hPa 0,0 l/m 0 min 0 min 0 W/m 0,0 km/h (0 Bft) 95,74 %
30.01.2018 02:08 3,9 C 2,8 C 1,1 C 95 % 15 lf 1028,6 hPa 0,0 l/m 0 min 0 min 0 W/m 4,5 km/h (1 Bft) 95,65 %
30.01.2018 02:10 3,9 C 2,2 C 1,1 C 95 % 15 lf 1028,6 hPa 0,0 l/m 0 min 0 min 0 W/m 4,5 km/h (1 Bft) 93,62 %
30.01.2018 02:12 3,9 C 2,2 C 0,6 C 95 % 15 lf 1028,7 hPa 0,0 l/m 0 min 0 min 0 W/m 9,0 km/h (2 Bft) 93,62 %
30.01.2018 02:14 3,9 C 2,2 C 0,6 C 95 % 15 lf 1028,7 hPa 0,0 l/m 0 min 0 min 0 W/m 6,8 km/h (2 Bft) 93,62 %
30.01.2018 02:16 3,9 C 2,2 C 0,6 C 95 % 15 lf 1028,7 hPa 0,0 l/m 0 min 0 min 0 W/m 6,8 km/h (2 Bft) 94,00 %
30.01.2018 02:18 3,9 C 2,2 C 0,6 C 95 % 15 lf 1028,8 hPa 0,0 l/m 0 min 0 min 0 W/m 6,8 km/h (2 Bft) 95,65 %
30.01.2018 02:20 3,9 C 2,2 C 0,6 C 95 % 15 lf 1028,7 hPa 0,0 l/m 0 min 0 min 0 W/m 6,8 km/h (2 Bft) 95,74 %
30.01.2018 02:22 3,8 C 2,2 C 0,6 C 95 % 15 lf 1028,7 hPa 0,0 l/m 0 min 0 min 0 W/m 4,5 km/h (1 Bft) 91,49 %
30.01.2018 02:24 3,8 C 2,2 C 0,6 C 95 % 15 lf 1028,7 hPa 0,0 l/m 0 min 0 min 0 W/m 2,3 km/h (1 Bft) 95,74 %
30.01.2018 02:26 3,8 C 2,2 C 0,6 C 95 % 15 lf 1028,8 hPa 0,0 l/m 0 min 0 min 0 W/m 4,5 km/h (1 Bft) 95,74 %
30.01.2018 02:28 3,8 C 2,2 C 0,6 C 95 % 15 lf 1028,7 hPa 0,0 l/m 0 min 0 min 0 W/m 6,8 km/h (2 Bft) 95,74 %
30.01.2018 02:30 3,7 C 2,2 C 0,6 C 95 % 15 lf 1028,7 hPa 0,0 l/m 0 min 0 min 0 W/m 9,0 km/h (2 Bft) 95,65 %
30.01.2018 02:32 3,7 C 2,2 C 0,6 C 95 % 15 lf 1028,6 hPa 0,0 l/m 0 min 0 min 0 W/m 4,5 km/h (1 Bft) 93,62 %
30.01.2018 02:34 3,7 C 2,2 C 0,6 C 95 % 15 lf 1028,7 hPa 0,0 l/m 0 min 0 min 0 W/m 4,5 km/h (1 Bft) 93,62 %
30.01.2018 02:36 3,7 C 2,2 C 0,6 C 95 % 15 lf 1028,6 hPa 0,0 l/m 0 min 0 min 0 W/m 4,5 km/h (1 Bft) 95,74 %
30.01.2018 02:38 3,7 C 2,2 C 0,6 C 95 % 15 lf 1028,6 hPa 0,0 l/m 0 min 0 min 0 W/m 4,5 km/h (1 Bft) 93,62 %
30.01.2018 02:40 3,6 C 2,2 C 0,6 C 95 % 15 lf 1028,6 hPa 0,0 l/m 0 min 0 min 0 W/m 6,8 km/h (2 Bft) 91,49 %
30.01.2018 02:42 3,6 C 2,2 C 0,6 C 95 % 15 lf 1028,6 hPa 0,0 l/m 0 min 0 min 0 W/m 2,3 km/h (1 Bft) 95,65 %
30.01.2018 02:44 3,6 C 2,2 C 0,6 C 95 % 15 lf 1028,6 hPa 0,0 l/m 0 min 0 min 0 W/m 6,8 km/h (2 Bft) 95,74 %
30.01.2018 02:46 3,6 C 2,2 C 0,6 C 95 % 15 lf 1028,6 hPa 0,0 l/m 0 min 0 min 0 W/m 4,5 km/h (1 Bft) 93,62 %
30.01.2018 02:48 3,6 C 2,2 C 0,6 C 95 % 15 lf 1028,6 hPa 0,0 l/m 0 min 0 min 0 W/m 11,3 km/h (2 Bft) 95,74 %
30.01.2018 02:50 3,5 C 2,2 C 0,6 C 95 % 15 lf 1028,6 hPa 0,0 l/m 0 min 0 min 0 W/m 9,0 km/h (2 Bft) 89,36 %
30.01.2018 02:52 3,5 C 2,2 C 0,6 C 95 % 15 lf 1028,6 hPa 0,0 l/m 0 min 0 min 0 W/m 9,0 km/h (2 Bft) 89,36 %
30.01.2018 02:54 3,5 C 2,2 C 1,1 C 95 % 15 lf 1028,6 hPa 0,0 l/m 0 min 0 min 0 W/m 11,3 km/h (2 Bft) 97,83 %
30.01.2018 02:56 3,5 C 2,8 C 1,1 C 95 % 15 lf 1028,6 hPa 0,0 l/m 0 min 0 min 0 W/m 9,0 km/h (2 Bft) 93,62 %
30.01.2018 02:58 3,5 C 2,8 C 1,1 C 95 % 15 lf 1028,6 hPa 0,0 l/m 0 min 0 min 0 W/m 6,8 km/h (2 Bft) 95,74 %
30.01.2018 03:00 3,5 C 2,2 C 1,1 C 95 % 15 lf 1028,6 hPa 0,0 l/m 0 min 0 min 0 W/m 6,8 km/h (2 Bft) 97,87 %
30.01.2018 03:02 3,5 C 2,2 C 1,1 C 95 % 15 lf 1028,6 hPa 0,0 l/m 0 min 0 min 0 W/m 6,8 km/h (2 Bft) 97,87 %
30.01.2018 03:04 3,4 C 2,2 C 1,1 C 95 % 15 lf 1028,6 hPa 0,0 l/m 0 min 0 min 0 W/m 6,8 km/h (2 Bft) 97,87 %
30.01.2018 03:06 3,4 C 2,2 C 1,1 C 95 % 15 lf 1028,6 hPa 0,0 l/m 0 min 0 min 0 W/m 9,0 km/h (2 Bft) 97,83 %
30.01.2018 03:08 3,4 C 2,2 C 1,1 C 95 % 15 lf 1028,6 hPa 0,0 l/m 0 min 0 min 0 W/m 6,8 km/h (2 Bft) 95,74 %
30.01.2018 03:10 3,4 C 2,2 C 1,1 C 95 % 15 lf 1028,6 hPa 0,0 l/m 0 min 0 min 0 W/m 11,3 km/h (2 Bft) 97,87 %
30.01.2018 03:12 3,4 C 2,8 C 1,1 C 95 % 15 lf 1028,6 hPa 0,0 l/m 0 min 0 min 0 W/m 11,3 km/h (2 Bft) 93,62 %
30.01.2018 03:14 3,4 C 2,8 C 1,1 C 95 % 15 lf 1028,6 hPa 0,0 l/m 0 min 0 min 0 W/m 11,3 km/h (2 Bft) 97,87 %
30.01.2018 03:16 3,5 C 2,8 C 1,1 C 95 % 15 lf 1028,6 hPa 0,0 l/m 0 min 0 min 0 W/m 9,0 km/h (2 Bft) 95,65 %
30.01.2018 03:18 3,5 C 2,8 C 1,1 C 95 % 15 lf 1028,5 hPa 0,0 l/m 0 min 0 min 0 W/m 6,8 km/h (2 Bft) 97,87 %
30.01.2018 03:20 3,5 C 2,8 C 1,1 C 95 % 15 lf 1028,6 hPa 0,0 l/m 0 min 0 min 0 W/m 9,0 km/h (2 Bft) 97,87 %
30.01.2018 03:22 3,5 C 2,8 C 1,1 C 95 % 15 lf 1028,5 hPa 0,0 l/m 0 min 0 min 0 W/m 11,3 km/h (2 Bft) 97,87 %
30.01.2018 03:24 3,5 C 2,2 C 1,1 C 95 % 15 lf 1028,5 hPa 0,0 l/m 0 min 0 min 0 W/m 9,0 km/h (2 Bft) 93,62 %
30.01.2018 03:26 3,4 C 2,2 C 1,1 C 95 % 15 lf 1028,5 hPa 0,0 l/m 0 min 0 min 0 W/m 6,8 km/h (2 Bft) 95,74 %
30.01.2018 03:28 3,4 C 2,8 C 1,1 C 95 % 15 lf 1028,5 hPa 0,0 l/m 0 min 0 min 0 W/m 11,3 km/h (2 Bft) 97,83 %
30.01.2018 03:30 3,4 C 2,8 C 1,1 C 95 % 15 lf 1028,5 hPa 0,0 l/m 0 min 0 min 0 W/m 9,0 km/h (2 Bft) 97,87 %
30.01.2018 03:32 3,4 C 2,2 C 1,1 C 95 % 15 lf 1028,5 hPa 0,0 l/m 0 min 0 min 0 W/m 9,0 km/h (2 Bft) 95,74 %
30.01.2018 03:34 3,4 C 2,2 C 1,1 C 95 % 15 lf 1028,4 hPa 0,0 l/m 0 min 0 min 0 W/m 9,0 km/h (2 Bft) 100,00 %
30.01.2018 03:36 3,4 C 2,2 C 0,6 C 95 % 15 lf 1028,4 hPa 0,0 l/m 0 min 0 min 0 W/m 9,0 km/h (2 Bft) 100,00 %
30.01.2018 03:38 3,4 C 2,2 C 0,6 C 95 % 15 lf 1028,4 hPa 0,0 l/m 0 min 0 min 0 W/m 6,8 km/h (2 Bft) 100,00 %
30.01.2018 03:40 3,4 C 2,2 C 0,6 C 95 % 15 lf 1028,4 hPa 0,0 l/m 0 min 0 min 0 W/m 9,0 km/h (2 Bft) 97,83 %
30.01.2018 03:42 3,4 C 2,2 C 0,6 C 95 % 15 lf 1028,4 hPa 0,0 l/m 0 min 0 min 0 W/m 11,3 km/h (2 Bft) 97,87 %
30.01.2018 03:44 3,3 C 2,2 C 1,1 C 95 % 15 lf 1028,4 hPa 0,0 l/m 0 min 0 min 0 W/m 9,0 km/h (2 Bft) 100,00 %
30.01.2018 03:46 3,3 C 2,2 C 1,1 C 95 % 15 lf 1028,5 hPa 0,0 l/m 0 min 0 min 0 W/m 9,0 km/h (2 Bft) 97,87 %
30.01.2018 03:48 3,3 C 2,2 C 1,1 C 95 % 15 lf 1028,5 hPa 0,0 l/m 0 min 0 min 0 W/m 6,8 km/h (2 Bft) 100,00 %
30.01.2018 03:50 3,3 C 2,2 C 1,1 C 95 % 15 lf 1028,5 hPa 0,0 l/m 0 min 0 min 0 W/m 9,0 km/h (2 Bft) 100,00 %
30.01.2018 03:52 3,3 C 2,2 C 0,6 C 95 % 15 lf 1028,5 hPa 0,0 l/m 0 min 0 min 0 W/m 9,0 km/h (2 Bft) 100,00 %
30.01.2018 03:54 3,3 C 2,2 C 0,6 C 95 % 15 lf 1028,5 hPa 0,0 l/m 0 min 0 min 0 W/m 6,8 km/h (2 Bft) 95,74 %
30.01.2018 03:56 3,3 C 2,2 C 0,6 C 95 % 15 lf 1028,5 hPa 0,0 l/m 0 min 0 min 0 W/m 9,0 km/h (2 Bft) 100,00 %
30.01.2018 03:58 3,3 C 2,2 C 0,6 C 95 % 15 lf 1028,5 hPa 0,0 l/m 0 min 0 min 0 W/m 6,8 km/h (2 Bft) 100,00 %
30.01.2018 04:00 3,2 C 2,2 C 0,6 C 96 % 15 lf 1028,6 hPa 0,0 l/m 0 min 0 min 0 W/m 11,3 km/h (2 Bft) 97,87 %
30.01.2018 04:02 3,2 C 2,2 C 0,6 C 96 % 15 lf 1028,5 hPa 0,0 l/m 0 min 0 min 0 W/m 9,0 km/h (2 Bft) 100,00 %
30.01.2018 04:04 3,2 C 2,2 C 0,6 C 96 % 15 lf 1028,5 hPa 0,0 l/m 0 min 0 min 0 W/m 9,0 km/h (2 Bft) 97,83 %
30.01.2018 04:06 3,2 C 2,2 C 1,1 C 96 % 15 lf 1028,6 hPa 0,0 l/m 0 min 0 min 0 W/m 11,3 km/h (2 Bft) 95,74 %
30.01.2018 04:08 3,2 C 2,2 C 0,6 C 96 % 15 lf 1028,6 hPa 0,0 l/m 0 min 0 min 0 W/m 6,8 km/h (2 Bft) 100,00 %
30.01.2018 04:10 3,2 C 2,2 C 0,6 C 96 % 15 lf 1028,5 hPa 0,0 l/m 0 min 0 min 0 W/m 9,0 km/h (2 Bft) 97,87 %
30.01.2018 04:12 3,2 C 1,7 C 0,6 C 96 % 15 lf 1028,4 hPa 0,0 l/m 0 min 0 min 0 W/m 2,3 km/h (1 Bft) 100,00 %
30.01.2018 04:14 3,2 C 1,7 C 0,0 C 96 % 15 lf 1028,4 hPa 0,0 l/m 0 min 0 min 0 W/m 6,8 km/h (2 Bft) 100,00 %
30.01.2018 04:16 3,2 C 1,7 C 0,0 C 96 % 15 lf 1028,4 hPa 0,0 l/m 0 min 0 min 0 W/m 6,8 km/h (2 Bft) 97,83 %
30.01.2018 04:18 3,2 C 1,7 C 0,0 C 96 % 15 lf 1028,6 hPa 0,0 l/m 0 min 0 min 0 W/m 9,0 km/h (2 Bft) 100,00 %
30.01.2018 04:20 3,1 C 1,7 C 0,0 C 96 % 15 lf 1028,6 hPa 0,0 l/m 0 min 0 min 0 W/m 9,0 km/h (2 Bft) 97,87 %
30.01.2018 04:22 3,1 C 1,7 C 0,6 C 96 % 15 lf 1028,6 hPa 0,0 l/m 0 min 0 min 0 W/m 11,3 km/h (2 Bft) 95,74 %
30.01.2018 04:24 3,1 C 2,2 C 0,6 C 96 % 15 lf 1028,6 hPa 0,0 l/m 0 min 0 min 0 W/m 9,0 km/h (2 Bft) 95,74 %
30.01.2018 04:26 3,1 C 1,7 C 0,6 C 96 % 15 lf 1028,6 hPa 0,0 l/m 0 min 0 min 0 W/m 9,0 km/h (2 Bft) 95,74 %
30.01.2018 04:28 3,0 C 2,2 C 0,6 C 96 % 15 lf 1028,6 hPa 0,0 l/m 0 min 0 min 0 W/m 9,0 km/h (2 Bft) 93,48 %
30.01.2018 04:30 3,0 C 2,2 C 0,6 C 96 % 15 lf 1028,6 hPa 0,0 l/m 0 min 0 min 0 W/m 6,8 km/h (2 Bft) 93,62 %
30.01.2018 04:32 3,0 C 2,2 C 0,6 C 96 % 15 lf 1028,7 hPa 0,0 l/m 0 min 0 min 0 W/m 6,8 km/h (2 Bft) 97,87 %
30.01.2018 04:34 2,9 C 2,2 C 0,6 C 96 % 15 lf 1028,6 hPa 0,0 l/m 0 min 0 min 0 W/m 4,5 km/h (1 Bft) 95,74 %
30.01.2018 04:36 2,9 C 1,7 C 0,0 C 96 % 15 lf 1028,6 hPa 0,0 l/m 0 min 0 min 0 W/m 4,5 km/h (1 Bft) 95,74 %
30.01.2018 04:38 2,9 C 1,7 C 0,0 C 96 % 15 lf 1028,6 hPa 0,0 l/m 0 min 0 min 0 W/m 9,0 km/h (2 Bft) 93,48 %
30.01.2018 04:40 2,9 C 1,7 C 0,0 C 96 % 15 lf 1028,5 hPa 0,0 l/m 0 min 0 min 0 W/m 4,5 km/h (1 Bft) 97,87 %
30.01.2018 04:42 2,9 C 1,7 C 0,0 C 96 % 15 lf 1028,5 hPa 0,0 l/m 0 min 0 min 0 W/m 9,0 km/h (2 Bft) 95,74 %
30.01.2018 04:44 2,8 C 1,7 C 0,0 C 96 % 15 lf 1028,5 hPa 0,0 l/m 0 min 0 min 0 W/m 9,0 km/h (2 Bft) 95,74 %
30.01.2018 04:46 2,8 C 1,7 C 0,0 C 96 % 15 lf 1028,5 hPa 0,0 l/m 0 min 0 min 0 W/m 9,0 km/h (2 Bft) 95,74 %
30.01.2018 04:48 2,8 C 1,7 C 0,0 C 96 % 15 lf 1028,5 hPa 0,0 l/m 0 min 0 min 0 W/m 9,0 km/h (2 Bft) 95,74 %
30.01.2018 04:50 2,8 C 1,1 C 0,0 C 96 % 15 lf 1028,5 hPa 0,0 l/m 0 min 0 min 0 W/m 6,8 km/h (2 Bft) 97,83 %
30.01.2018 04:52 2,8 C 1,1 C 0,0 C 96 % 15 lf 1028,6 hPa 0,0 l/m 0 min 0 min 0 W/m 4,5 km/h (1 Bft) 95,74 %
30.01.2018 04:54 2,7 C 1,1 C 0,0 C 96 % 15 lf 1028,6 hPa 0,0 l/m 0 min 0 min 0 W/m 4,5 km/h (1 Bft) 97,87 %
30.01.2018 04:56 2,7 C 1,1 C 0,0 C 96 % 15 lf 1028,6 hPa 0,0 l/m 0 min 0 min 0 W/m 6,8 km/h (2 Bft) 97,87 %
30.01.2018 04:58 2,7 C 1,1 C 0,0 C 96 % 15 lf 1028,6 hPa 0,0 l/m 0 min 0 min 0 W/m 4,5 km/h (1 Bft) 97,87 %
30.01.2018 05:00 2,7 C 1,7 C 0,0 C 96 % 15 lf 1028,6 hPa 0,0 l/m 0 min 0 min 0 W/m 6,8 km/h (2 Bft) 97,87 %
30.01.2018 05:02 2,7 C 1,1 C 0,0 C 96 % 15 lf 1028,6 hPa 0,0 l/m 0 min 0 min 0 W/m 4,5 km/h (1 Bft) 97,83 %
30.01.2018 05:04 2,7 C 1,1 C -0,6 C 96 % 15 lf 1028,6 hPa 0,0 l/m 0 min 0 min 0 W/m 6,8 km/h (2 Bft) 95,74 %
30.01.2018 05:06 2,7 C 1,1 C -0,6 C 96 % 15 lf 1028,6 hPa 0,0 l/m 0 min 0 min 0 W/m 6,8 km/h (2 Bft) 97,87 %
30.01.2018 05:08 2,6 C 1,1 C 0,0 C 96 % 15 lf 1028,6 hPa 0,0 l/m 0 min 0 min 0 W/m 4,5 km/h (1 Bft) 97,87 %
30.01.2018 05:10 2,6 C 1,1 C -0,6 C 96 % 15 lf 1028,6 hPa 0,0 l/m 0 min 0 min 0 W/m 4,5 km/h (1 Bft) 95,74 %
30.01.2018 05:12 2,6 C 1,1 C 0,0 C 96 % 15 lf 1028,6 hPa 0,0 l/m 0 min 0 min 0 W/m 6,8 km/h (2 Bft) 95,74 %
30.01.2018 05:14 2,6 C 1,1 C 0,0 C 96 % 15 lf 1028,6 hPa 0,0 l/m 0 min 0 min 0 W/m 2,3 km/h (1 Bft) 97,83 %
30.01.2018 05:16 2,6 C 1,1 C -0,6 C 96 % 15 lf 1028,6 hPa 0,0 l/m 0 min 0 min 0 W/m 4,5 km/h (1 Bft) 95,74 %
30.01.2018 05:18 2,6 C 1,1 C -0,6 C 96 % 15 lf 1028,6 hPa 0,0 l/m 0 min 0 min 0 W/m 0,0 km/h (0 Bft) 100,00 %
30.01.2018 05:20 2,5 C 1,1 C -0,6 C 96 % 15 lf 1028,6 hPa 0,0 l/m 0 min 0 min 0 W/m 4,5 km/h (1 Bft) 98,31 %
30.01.2018 05:22 2,5 C 0,6 C -0,6 C 96 % 15 lf 1028,6 hPa 0,0 l/m 0 min 0 min 0 W/m 2,3 km/h (1 Bft) 97,14 %
30.01.2018 05:24 2,4 C 0,6 C -0,6 C 96 % 15 lf 1028,6 hPa 0,0 l/m 0 min 0 min 0 W/m 2,3 km/h (1 Bft) 100,00 %
30.01.2018 05:26 2,4 C 1,1 C -0,6 C 96 % 15 lf 1028,6 hPa 0,0 l/m 0 min 0 min 0 W/m 2,3 km/h (1 Bft) 100,00 %
30.01.2018 05:28 2,4 C 1,1 C -0,6 C 96 % 15 lf 1028,6 hPa 0,0 l/m 0 min 0 min 0 W/m 4,5 km/h (1 Bft) 100,00 %
30.01.2018 05:30 2,4 C 1,1 C -0,6 C 96 % 15 lf 1028,7 hPa 0,0 l/m 0 min 0 min 0 W/m 0,0 km/h (0 Bft) 100,00 %
30.01.2018 05:32 2,3 C 1,1 C -0,6 C 96 % 15 lf 1028,6 hPa 0,0 l/m 0 min 0 min 0 W/m 0,0 km/h (0 Bft) 100,00 %
30.01.2018 05:34 2,3 C 1,1 C -0,6 C 96 % 15 lf 1028,6 hPa 0,0 l/m 0 min 0 min 0 W/m 0,0 km/h (0 Bft) 95,74 %
30.01.2018 05:35 2,3 C 1,1 C -0,6 C 96 % 15 lf 1028,6 hPa 0,0 l/m 0 min 0 min 0 W/m 0,0 km/h (0 Bft) 100,00 %
30.01.2018 05:40 2,2 C 1,1 C -0,6 C 96 % 15 lf 1028,5 hPa 0,0 l/m 0 min 0 min 0 W/m 6,8 km/h (2 Bft) 95,65 %
30.01.2018 05:42 2,2 C 1,1 C -0,6 C 96 % 15 lf 1028,5 hPa 0,0 l/m 0 min 0 min 0 W/m 6,8 km/h (2 Bft) 100,00 %
30.01.2018 05:44 2,2 C 1,1 C -0,6 C 96 % 15 lf 1028,5 hPa 0,0 l/m 0 min 0 min 0 W/m 4,5 km/h (1 Bft) 91,49 %
30.01.2018 05:46 2,2 C 1,1 C -0,6 C 96 % 15 lf 1028,6 hPa 0,0 l/m 0 min 0 min 0 W/m 4,5 km/h (1 Bft) 93,48 %
30.01.2018 05:48 2,2 C 1,1 C -0,6 C 96 % 15 lf 1028,6 hPa 0,0 l/m 0 min 0 min 0 W/m 6,8 km/h (2 Bft) 94,44 %
30.01.2018 05:50 2,1 C 1,1 C -0,6 C 96 % 15 lf 1028,7 hPa 0,0 l/m 0 min 0 min 0 W/m 6,8 km/h (2 Bft) 96,55 %
30.01.2018 05:52 2,1 C 1,1 C -0,6 C 96 % 15 lf 1028,7 hPa 0,0 l/m 0 min 0 min 0 W/m 6,8 km/h (2 Bft) 97,14 %
30.01.2018 05:54 2,1 C 1,1 C -0,6 C 96 % 15 lf 1028,7 hPa 0,0 l/m 0 min 0 min 0 W/m 4,5 km/h (1 Bft) 90,74 %
30.01.2018 05:56 2,1 C 1,1 C -0,6 C 96 % 15 lf 1028,7 hPa 0,0 l/m 0 min 0 min 0 W/m 2,3 km/h (1 Bft) 94,00 %
30.01.2018 05:58 2,0 C 0,6 C -0,6 C 96 % 15 lf 1028,7 hPa 0,0 l/m 0 min 0 min 0 W/m 2,3 km/h (1 Bft) 93,48 %
30.01.2018 06:00 2,0 C 0,6 C -0,6 C 96 % 15 lf 1028,8 hPa 0,0 l/m 0 min 0 min 0 W/m 4,5 km/h (1 Bft) 93,62 %
30.01.2018 06:02 2,0 C 1,1 C -0,6 C 96 % 15 lf 1028,8 hPa 0,0 l/m 0 min 0 min 0 W/m 4,5 km/h (1 Bft) 95,74 %
30.01.2018 06:04 1,9 C 1,1 C -0,6 C 96 % 15 lf 1028,9 hPa 0,0 l/m 0 min 0 min 0 W/m 0,0 km/h (0 Bft) 95,24 %
30.01.2018 06:08 1,9 C 1,1 C -0,6 C 96 % 15 lf 1028,9 hPa 0,0 l/m 0 min 0 min 0 W/m 2,3 km/h (1 Bft) 91,57 %
30.01.2018 06:10 1,9 C 1,1 C -0,6 C 96 % 15 lf 1028,8 hPa 0,0 l/m 0 min 0 min 0 W/m 6,8 km/h (2 Bft) 91,49 %
30.01.2018 06:12 1,9 C 0,6 C -0,6 C 96 % 15 lf 1028,6 hPa 0,0 l/m 0 min 0 min 0 W/m 0,0 km/h (0 Bft) 91,49 %
30.01.2018 06:14 1,8 C 1,1 C -0,6 C 96 % 15 lf 1028,5 hPa 0,0 l/m 0 min 0 min 0 W/m 4,5 km/h (1 Bft) 93,48 %
30.01.2018 06:16 1,8 C 1,1 C 0,0 C 96 % 15 lf 1028,6 hPa 0,0 l/m 0 min 0 min 0 W/m 2,3 km/h (1 Bft) 93,62 %
30.01.2018 06:18 1,8 C 1,1 C 0,0 C 96 % 15 lf 1028,6 hPa 0,0 l/m 0 min 0 min 0 W/m 4,5 km/h (1 Bft) 93,62 %
30.01.2018 06:20 1,8 C 1,1 C 0,0 C 96 % 15 lf 1028,7 hPa 0,0 l/m 0 min 0 min 0 W/m 6,8 km/h (2 Bft) 93,22 %
30.01.2018 06:22 1,8 C 1,1 C 0,0 C 96 % 15 lf 1028,6 hPa 0,0 l/m 0 min 0 min 0 W/m 9,0 km/h (2 Bft) 88,57 %
30.01.2018 06:24 1,8 C 1,1 C 0,6 C 96 % 15 lf 1028,7 hPa 0,0 l/m 0 min 0 min 0 W/m 4,5 km/h (1 Bft) 93,48 %
30.01.2018 06:26 1,8 C 1,1 C 0,0 C 96 % 15 lf 1028,6 hPa 0,0 l/m 0 min 0 min 0 W/m 6,8 km/h (2 Bft) 93,62 %
30.01.2018 06:28 1,8 C 1,1 C 0,0 C 96 % 15 lf 1028,8 hPa 0,0 l/m 0 min 0 min 0 W/m 9,0 km/h (2 Bft) 89,36 %
30.01.2018 06:30 1,8 C 1,1 C 0,0 C 96 % 15 lf 1028,9 hPa 0,0 l/m 0 min 0 min 0 W/m 6,8 km/h (2 Bft) 89,36 %
30.01.2018 06:32 1,8 C 1,1 C 0,0 C 96 % 15 lf 1028,9 hPa 0,0 l/m 0 min 0 min 0 W/m 6,8 km/h (2 Bft) 91,49 %
30.01.2018 06:34 1,8 C 1,1 C 0,0 C 96 % 15 lf 1028,9 hPa 0,0 l/m 0 min 0 min 0 W/m 6,8 km/h (2 Bft) 93,62 %
30.01.2018 06:36 1,8 C 1,1 C 0,0 C 96 % 15 lf 1028,8 hPa 0,0 l/m 0 min 0 min 0 W/m 6,8 km/h (2 Bft) 94,34 %
30.01.2018 06:38 1,8 C 1,1 C 0,0 C 96 % 15 lf 1028,7 hPa 0,0 l/m 0 min 0 min 0 W/m 4,5 km/h (1 Bft) 100,00 %
30.01.2018 06:40 1,8 C 1,1 C 0,0 C 96 % 15 lf 1028,8 hPa 0,0 l/m 0 min 0 min 0 W/m 6,8 km/h (2 Bft) 97,87 %
30.01.2018 06:42 1,8 C 1,1 C 0,0 C 96 % 15 lf 1029,0 hPa 0,0 l/m 0 min 0 min 0 W/m 6,8 km/h (2 Bft) 97,87 %
30.01.2018 06:44 1,8 C 1,1 C 0,0 C 96 % 15 lf 1028,9 hPa 0,0 l/m 0 min 0 min 0 W/m 9,0 km/h (2 Bft) 95,92 %
30.01.2018 06:46 1,8 C 1,1 C 0,0 C 96 % 15 lf 1029,0 hPa 0,0 l/m 0 min 0 min 0 W/m 6,8 km/h (2 Bft) 95,74 %
30.01.2018 06:48 1,8 C 1,1 C 0,0 C 96 % 15 lf 1029,1 hPa 0,0 l/m 0 min 0 min 0 W/m 6,8 km/h (2 Bft) 97,87 %
30.01.2018 06:50 1,9 C 1,1 C 0,0 C 96 % 15 lf 1029,1 hPa 0,0 l/m 0 min 0 min 0 W/m 6,8 km/h (2 Bft) 100,00 %
30.01.2018 06:52 1,8 C 1,1 C 0,0 C 96 % 15 lf 1029,1 hPa 0,0 l/m 0 min 0 min 0 W/m 9,0 km/h (2 Bft) 97,87 %
30.01.2018 06:54 1,9 C 1,1 C 0,0 C 96 % 15 lf 1029,0 hPa 0,0 l/m 0 min 0 min 0 W/m 6,8 km/h (2 Bft) 100,00 %
30.01.2018 06:56 1,9 C 1,1 C 0,0 C 96 % 15 lf 1028,9 hPa 0,0 l/m 0 min 0 min 0 W/m 9,0 km/h (2 Bft) 100,00 %
30.01.2018 06:58 1,9 C 1,1 C 0,0 C 96 % 15 lf 1028,8 hPa 0,0 l/m 0 min 0 min 0 W/m 6,8 km/h (2 Bft) 95,74 %
30.01.2018 07:00 1,9 C 1,1 C 0,0 C 96 % 15 lf 1028,6 hPa 0,0 l/m 0 min 0 min 0 W/m 9,0 km/h (2 Bft) 100,00 %
30.01.2018 07:02 1,9 C 1,1 C 0,0 C 96 % 15 lf 1028,6 hPa 0,0 l/m 0 min 0 min 0 W/m 6,8 km/h (2 Bft) 95,74 %
30.01.2018 07:04 1,9 C 1,1 C 0,0 C 96 % 15 lf 1028,5 hPa 0,0 l/m 0 min 0 min 0 W/m 6,8 km/h (2 Bft) 93,62 %
30.01.2018 07:06 1,9 C 1,1 C 0,0 C 96 % 15 lf 1028,6 hPa 0,0 l/m 0 min 0 min 0 W/m 9,0 km/h (2 Bft) 100,00 %
30.01.2018 07:08 1,9 C 1,7 C 0,0 C 96 % 15 lf 1028,6 hPa 0,0 l/m 0 min 0 min 0 W/m 13,5 km/h (3 Bft) 97,83 %
30.01.2018 07:10 1,9 C 1,7 C 0,6 C 96 % 15 lf 1028,8 hPa 0,0 l/m 0 min 0 min 0 W/m 9,0 km/h (2 Bft) 95,74 %
30.01.2018 07:12 1,9 C 1,7 C 0,6 C 96 % 15 lf 1028,7 hPa 0,0 l/m 0 min 0 min 0 W/m 6,8 km/h (2 Bft) 95,74 %
30.01.2018 07:14 1,9 C 1,7 C 0,6 C 96 % 15 lf 1028,8 hPa 0,0 l/m 0 min 0 min 0 W/m 9,0 km/h (2 Bft) 95,74 %
30.01.2018 07:16 1,9 C 1,7 C 0,6 C 96 % 15 lf 1028,8 hPa 0,0 l/m 0 min 0 min 0 W/m 6,8 km/h (2 Bft) 97,87 %
30.01.2018 07:18 1,9 C 1,7 C 0,6 C 96 % 15 lf 1028,8 hPa 0,0 l/m 0 min 0 min 0 W/m 9,0 km/h (2 Bft) 97,87 %
30.01.2018 07:20 2,0 C 1,7 C 0,6 C 96 % 15 lf 1028,9 hPa 0,0 l/m 0 min 0 min 0 W/m 6,8 km/h (2 Bft) 93,48 %
30.01.2018 07:22 2,0 C 1,7 C 0,6 C 97 % 15 lf 1028,9 hPa 0,0 l/m 0 min 0 min 0 W/m 6,8 km/h (2 Bft) 97,87 %
30.01.2018 07:24 2,0 C 1,7 C 0,6 C 97 % 15 lf 1028,9 hPa 0,0 l/m 0 min 0 min 0 W/m 9,0 km/h (2 Bft) 97,87 %
30.01.2018 07:26 2,0 C 2,2 C 1,1 C 97 % 15 lf 1028,8 hPa 0,0 l/m 0 min 0 min 0 W/m 6,8 km/h (2 Bft) 97,87 %
30.01.2018 07:28 2,1 C 2,2 C 1,1 C 97 % 15 lf 1028,8 hPa 0,0 l/m 0 min 0 min 0 W/m 4,5 km/h (1 Bft) 97,14 %
30.01.2018 07:30 2,1 C 2,2 C 1,1 C 97 % 15 lf 1028,9 hPa 0,0 l/m 0 min 0 min 0 W/m 6,8 km/h (2 Bft) 97,87 %
30.01.2018 07:32 2,1 C 1,7 C 0,6 C 97 % 15 lf 1028,8 hPa 0,0 l/m 0 min 0 min 0 W/m 6,8 km/h (2 Bft) 97,87 %
30.01.2018 07:34 2,1 C 1,7 C 1,1 C 97 % 15 lf 1028,9 hPa 0,0 l/m 0 min 0 min 0 W/m 9,0 km/h (2 Bft) 97,87 %
30.01.2018 07:36 2,1 C 1,7 C 1,1 C 97 % 15 lf 1029,0 hPa 0,0 l/m 0 min 0 min 0 W/m 9,0 km/h (2 Bft) 94,34 %
30.01.2018 07:38 2,1 C 1,7 C 0,6 C 97 % 15 lf 1029,0 hPa 0,0 l/m 0 min 0 min 0 W/m 9,0 km/h (2 Bft) 97,87 %
30.01.2018 07:40 2,1 C 2,2 C 1,1 C 97 % 15 lf 1029,1 hPa 0,0 l/m 0 min 0 min 0 W/m 6,8 km/h (2 Bft) 98,00 %
30.01.2018 07:42 2,2 C 2,2 C 1,1 C 97 % 15 lf 1029,1 hPa 0,0 l/m 0 min 0 min 0 W/m 9,0 km/h (2 Bft) 97,83 %
30.01.2018 07:44 2,2 C 1,7 C 1,1 C 97 % 15 lf 1029,0 hPa 0,0 l/m 0 min 0 min 0 W/m 6,8 km/h (2 Bft) 97,87 %
30.01.2018 07:46 2,2 C 1,7 C 1,1 C 97 % 15 lf 1029,0 hPa 0,0 l/m 0 min 0 min 0 W/m 6,8 km/h (2 Bft) 97,87 %
30.01.2018 07:48 2,2 C 1,7 C 1,1 C 97 % 15 lf 1029,0 hPa 0,0 l/m 0 min 0 min 0 W/m 6,8 km/h (2 Bft) 93,88 %
30.01.2018 07:50 2,2 C 1,7 C 0,6 C 97 % 15 lf 1029,0 hPa 0,0 l/m 0 min 0 min 0 W/m 6,8 km/h (2 Bft) 95,74 %
30.01.2018 07:52 2,2 C 1,7 C 0,6 C 97 % 15 lf 1029,0 hPa 0,0 l/m 0 min 0 min 0 W/m 6,8 km/h (2 Bft) 100,00 %
30.01.2018 07:54 2,2 C 1,7 C 0,6 C 97 % 15 lf 1028,9 hPa 0,0 l/m 0 min 0 min 0 W/m 6,8 km/h (2 Bft) 97,14 %
30.01.2018 07:56 2,3 C 1,7 C 0,6 C 97 % 15 lf 1028,9 hPa 0,0 l/m 0 min 0 min 0 W/m 6,8 km/h (2 Bft) 96,23 %
30.01.2018 07:58 2,2 C 1,7 C 0,6 C 97 % 15 lf 1029,0 hPa 0,0 l/m 0 min 0 min 0 W/m 4,5 km/h (1 Bft) 97,87 %
30.01.2018 08:00 2,3 C 1,7 C 0,6 C 97 % 15 lf 1029,0 hPa 0,0 l/m 0 min 0 min 0 W/m 6,8 km/h (2 Bft) 95,74 %
30.01.2018 08:02 2,3 C 1,7 C 0,6 C 97 % 15 lf 1029,0 hPa 0,0 l/m 0 min 0 min 0 W/m 6,8 km/h (2 Bft) 97,87 %
30.01.2018 08:04 2,3 C 1,7 C 0,6 C 97 % 15 lf 1029,0 hPa 0,0 l/m 0 min 0 min 0 W/m 9,0 km/h (2 Bft) 100,00 %
30.01.2018 08:06 2,3 C 1,7 C 0,6 C 97 % 15 lf 1029,0 hPa 0,0 l/m 0 min 0 min 4 W/m 11,3 km/h (2 Bft) 95,65 %
30.01.2018 08:08 2,3 C 2,2 C 0,6 C 97 % 15 lf 1029,0 hPa 0,0 l/m 0 min 0 min 5 W/m 6,8 km/h (2 Bft) 98,00 %
30.01.2018 08:10 2,3 C 1,7 C 0,6 C 97 % 15 lf 1029,0 hPa 0,0 l/m 0 min 0 min 5 W/m 6,8 km/h (2 Bft) 97,87 %
30.01.2018 08:12 2,3 C 1,7 C 0,6 C 97 % 15 lf 1029,1 hPa 0,0 l/m 0 min 0 min 5 W/m 9,0 km/h (2 Bft) 97,87 %
30.01.2018 08:14 2,3 C 2,2 C 0,6 C 97 % 15 lf 1029,1 hPa 0,0 l/m 0 min 0 min 5 W/m 11,3 km/h (2 Bft) 97,87 %
30.01.2018 08:16 2,3 C 2,2 C 1,1 C 97 % 15 lf 1029,1 hPa 0,0 l/m 0 min 0 min 6 W/m 9,0 km/h (2 Bft) 97,87 %
30.01.2018 08:18 2,3 C 2,2 C 1,1 C 97 % 15 lf 1029,0 hPa 0,0 l/m 0 min 0 min 7 W/m 6,8 km/h (2 Bft) 95,65 %
30.01.2018 08:20 2,3 C 1,7 C 0,6 C 97 % 15 lf 1029,1 hPa 0,0 l/m 0 min 0 min 7 W/m 11,3 km/h (2 Bft) 97,87 %
30.01.2018 08:22 2,3 C 2,2 C 0,6 C 97 % 15 lf 1029,0 hPa 0,0 l/m 0 min 0 min 9 W/m 9,0 km/h (2 Bft) 97,87 %
30.01.2018 08:24 2,3 C 2,2 C 0,6 C 97 % 15 lf 1029,0 hPa 0,0 l/m 0 min 0 min 10 W/m 11,3 km/h (2 Bft) 97,87 %
30.01.2018 08:26 2,3 C 2,2 C 0,6 C 97 % 15 lf 1029,0 hPa 0,0 l/m 0 min 0 min 12 W/m 9,0 km/h (2 Bft) 95,74 %
30.01.2018 08:28 2,3 C 2,2 C 0,6 C 97 % 15 lf 1029,1 hPa 0,0 l/m 0 min 0 min 13 W/m 9,0 km/h (2 Bft) 97,83 %
30.01.2018 08:30 2,3 C 2,2 C 0,6 C 97 % 15 lf 1029,1 hPa 0,0 l/m 0 min 0 min 16 W/m 13,5 km/h (3 Bft) 97,87 %
30.01.2018 08:32 2,4 C 1,7 C 0,6 C 97 % 15 lf 1029,2 hPa 0,0 l/m 0 min 0 min 16 W/m 9,0 km/h (2 Bft) 100,00 %
30.01.2018 08:34 2,4 C 2,2 C 1,1 C 97 % 15 lf 1029,2 hPa 0,0 l/m 0 min 0 min 14 W/m 11,3 km/h (2 Bft) 97,87 %
30.01.2018 08:36 2,4 C 2,2 C 1,1 C 97 % 15 lf 1029,3 hPa 0,0 l/m 0 min 0 min 18 W/m 9,0 km/h (2 Bft) 97,87 %
30.01.2018 08:38 2,4 C 2,2 C 1,1 C 97 % 15 lf 1029,2 hPa 0,0 l/m 0 min 0 min 22 W/m 11,3 km/h (2 Bft) 100,00 %
30.01.2018 08:40 2,4 C 2,2 C 1,1 C 97 % 15 lf 1029,2 hPa 0,0 l/m 0 min 0 min 23 W/m 9,0 km/h (2 Bft) 97,83 %
30.01.2018 08:42 2,5 C 2,2 C 1,1 C 97 % 15 lf 1029,2 hPa 0,0 l/m 0 min 0 min 23 W/m 13,5 km/h (3 Bft) 97,87 %
30.01.2018 08:44 2,5 C 2,2 C 1,1 C 97 % 15 lf 1029,2 hPa 0,0 l/m 0 min 0 min 22 W/m 11,3 km/h (2 Bft) 97,87 %
30.01.2018 08:46 2,5 C 2,2 C 1,1 C 97 % 15 lf 1029,2 hPa 0,0 l/m 0 min 0 min 18 W/m 11,3 km/h (2 Bft) 97,87 %
30.01.2018 08:48 2,5 C 2,2 C 0,6 C 97 % 15 lf 1029,2 hPa 0,0 l/m 0 min 0 min 18 W/m 6,8 km/h (2 Bft) 97,87 %
30.01.2018 08:50 2,5 C 2,2 C 0,6 C 97 % 15 lf 1029,2 hPa 0,0 l/m 0 min 0 min 19 W/m 11,3 km/h (2 Bft) 97,87 %
30.01.2018 08:52 2,5 C 2,2 C 1,1 C 97 % 15 lf 1029,2 hPa 0,0 l/m 0 min 0 min 20 W/m 11,3 km/h (2 Bft) 95,65 %
30.01.2018 08:54 2,5 C 2,2 C 1,1 C 97 % 15 lf 1029,2 hPa 0,0 l/m 0 min 0 min 24 W/m 9,0 km/h (2 Bft) 93,88 %
30.01.2018 08:56 2,6 C 2,2 C 1,1 C 97 % 15 lf 1029,2 hPa 0,0 l/m 0 min 0 min 35 W/m 9,0 km/h (2 Bft) 95,56 %
30.01.2018 08:58 2,6 C 2,2 C 1,1 C 97 % 15 lf 1029,2 hPa 0,0 l/m 0 min 0 min 40 W/m 9,0 km/h (2 Bft) 97,87 %
30.01.2018 09:00 2,6 C 2,2 C 1,1 C 97 % 15 lf 1029,1 hPa 0,0 l/m 0 min 0 min 47 W/m 9,0 km/h (2 Bft) 97,96 %
30.01.2018 09:02 2,6 C 2,2 C 1,1 C 97 % 15 lf 1029,2 hPa 0,0 l/m 0 min 0 min 51 W/m 9,0 km/h (2 Bft) 95,74 %
30.01.2018 09:04 2,6 C 2,2 C 1,1 C 97 % 15 lf 1029,1 hPa 0,0 l/m 0 min 0 min 53 W/m 11,3 km/h (2 Bft) 95,74 %
30.01.2018 09:06 2,6 C 2,2 C 1,1 C 97 % 15 lf 1029,2 hPa 0,0 l/m 0 min 0 min 57 W/m 11,3 km/h (2 Bft) 95,65 %
30.01.2018 09:08 2,6 C 2,2 C 1,1 C 97 % 15 lf 1029,1 hPa 0,0 l/m 2 min 0 min 61 W/m 13,5 km/h (3 Bft) 95,74 %
30.01.2018 09:10 2,6 C 2,2 C 1,1 C 97 % 15 lf 1029,0 hPa 0,0 l/m 2 min 0 min 64 W/m 9,0 km/h (2 Bft) 95,74 %
30.01.2018 09:12 2,6 C 2,8 C 1,1 C 97 % 15 lf 1029,0 hPa 0,0 l/m 2 min 0 min 69 W/m 11,3 km/h (2 Bft) 95,74 %
30.01.2018 09:14 2,6 C 2,8 C 1,1 C 97 % 15 lf 1029,1 hPa 0,0 l/m 2 min 0 min 71 W/m 11,3 km/h (2 Bft) 95,74 %
30.01.2018 09:16 2,6 C 2,8 C 1,1 C 97 % 15 lf 1029,0 hPa 0,0 l/m 2 min 0 min 73 W/m 13,5 km/h (3 Bft) 97,83 %
30.01.2018 09:18 2,6 C 2,8 C 1,1 C 97 % 15 lf 1029,1 hPa 0,0 l/m 2 min 0 min 74 W/m 9,0 km/h (2 Bft) 95,74 %
30.01.2018 09:20 2,7 C 2,8 C 1,7 C 97 % 15 lf 1029,1 hPa 0,0 l/m 2 min 0 min 82 W/m 9,0 km/h (2 Bft) 97,87 %
30.01.2018 09:22 2,7 C 3,3 C 1,7 C 97 % 15 lf 1029,1 hPa 0,0 l/m 2 min 0 min 102 W/m 6,8 km/h (2 Bft) 97,87 %
30.01.2018 09:24 2,7 C 3,3 C 1,7 C 97 % 15 lf 1029,1 hPa 0,0 l/m 2 min 0 min 85 W/m 9,0 km/h (2 Bft) 97,87 %
30.01.2018 09:26 2,8 C 3,3 C 1,7 C 97 % 15 lf 1029,1 hPa 0,0 l/m 0 min 0 min 70 W/m 11,3 km/h (2 Bft) 95,74 %
30.01.2018 09:28 2,8 C 3,3 C 1,7 C 97 % 15 lf 1029,0 hPa 0,0 l/m 0 min 0 min 70 W/m 9,0 km/h (2 Bft) 95,65 %
30.01.2018 09:30 2,8 C 3,3 C 1,7 C 97 % 15 lf 1029,0 hPa 0,0 l/m 0 min 0 min 71 W/m 9,0 km/h (2 Bft) 97,87 %
30.01.2018 09:32 2,8 C 3,3 C 2,2 C 97 % 15 lf 1029,2 hPa 0,0 l/m 0 min 0 min 70 W/m 13,5 km/h (3 Bft) 100,00 %
30.01.2018 09:34 2,9 C 3,3 C 2,2 C 97 % 15 lf 1029,1 hPa 0,0 l/m 0 min 0 min 66 W/m 13,5 km/h (3 Bft) 97,87 %
30.01.2018 09:36 2,9 C 3,3 C 2,2 C 97 % 15 lf 1029,0 hPa 0,0 l/m 0 min 0 min 66 W/m 9,0 km/h (2 Bft) 91,49 %
30.01.2018 09:38 2,9 C 3,3 C 2,2 C 97 % 15 lf 1029,0 hPa 0,0 l/m 0 min 0 min 64 W/m 11,3 km/h (2 Bft) 95,74 %
30.01.2018 09:40 2,9 C 3,3 C 2,2 C 97 % 15 lf 1029,1 hPa 0,0 l/m 0 min 0 min 67 W/m 9,0 km/h (2 Bft) 100,00 %
30.01.2018 09:42 2,9 C 3,3 C 2,2 C 97 % 15 lf 1029,1 hPa 0,0 l/m 0 min 0 min 65 W/m 13,5 km/h (3 Bft) 95,74 %
30.01.2018 09:44 2,9 C 3,3 C 2,2 C 97 % 15 lf 1029,1 hPa 0,0 l/m 0 min 0 min 70 W/m 9,0 km/h (2 Bft) 95,74 %
30.01.2018 09:46 2,9 C 3,3 C 2,2 C 97 % 15 lf 1029,0 hPa 0,0 l/m 0 min 0 min 76 W/m 9,0 km/h (2 Bft) 91,49 %
30.01.2018 09:48 2,9 C 3,3 C 2,2 C 97 % 15 lf 1029,2 hPa 0,0 l/m 0 min 0 min 71 W/m 13,5 km/h (3 Bft) 93,62 %
30.01.2018 09:50 3,0 C 3,3 C 2,2 C 97 % 15 lf 1029,2 hPa 0,0 l/m 0 min 0 min 61 W/m 11,3 km/h (2 Bft) 93,62 %
30.01.2018 09:52 3,0 C 3,3 C 2,2 C 97 % 15 lf 1029,1 hPa 0,0 l/m 0 min 0 min 85 W/m 9,0 km/h (2 Bft) 91,43 %
30.01.2018 09:54 3,0 C 3,3 C 2,2 C 98 % 15 lf 1029,2 hPa 0,0 l/m 0 min 0 min 76 W/m 9,0 km/h (2 Bft) 91,30 %
30.01.2018 09:56 3,0 C 3,3 C 2,2 C 98 % 15 lf 1029,2 hPa 0,0 l/m 0 min 0 min 75 W/m 13,5 km/h (3 Bft) 93,62 %
30.01.2018 09:58 3,1 C 3,3 C 2,2 C 98 % 15 lf 1029,2 hPa 0,0 l/m 0 min 0 min 71 W/m 11,3 km/h (2 Bft) 91,49 %
30.01.2018 10:00 3,1 C 3,3 C 2,8 C 98 % 15 lf 1029,2 hPa 0,0 l/m 0 min 0 min 82 W/m 6,8 km/h (2 Bft) 91,49 %
30.01.2018 10:02 3,1 C 3,3 C 2,8 C 98 % 15 lf 1029,2 hPa 0,0 l/m 0 min 0 min 90 W/m 11,3 km/h (2 Bft) 93,62 %
30.01.2018 10:04 3,1 C 3,3 C 2,8 C 98 % 15 lf 1029,2 hPa 0,0 l/m 0 min 0 min 92 W/m 9,0 km/h (2 Bft) 93,62 %
30.01.2018 10:06 3,1 C 3,3 C 2,8 C 98 % 15 lf 1029,2 hPa 0,0 l/m 0 min 0 min 72 W/m 11,3 km/h (2 Bft) 93,48 %
30.01.2018 10:08 3,1 C 3,3 C 2,8 C 98 % 15 lf 1029,3 hPa 0,0 l/m 0 min 0 min 83 W/m 11,3 km/h (2 Bft) 93,62 %
30.01.2018 10:10 3,1 C 3,3 C 2,8 C 98 % 15 lf 1029,4 hPa 0,0 l/m 0 min 0 min 83 W/m 9,0 km/h (2 Bft) 93,62 %
30.01.2018 10:12 3,2 C 3,3 C 2,8 C 98 % 15 lf 1029,2 hPa 0,0 l/m 0 min 0 min 82 W/m 6,8 km/h (2 Bft) 87,23 %
30.01.2018 10:14 3,2 C 3,3 C 2,8 C 98 % 15 lf 1029,3 hPa 0,0 l/m 0 min 0 min 92 W/m 9,0 km/h (2 Bft) 93,62 %
30.01.2018 10:16 3,2 C 3,3 C 2,8 C 98 % 15 lf 1029,3 hPa 0,0 l/m 0 min 0 min 72 W/m 11,3 km/h (2 Bft) 89,36 %
30.01.2018 10:18 3,2 C 3,9 C 2,8 C 98 % 15 lf 1029,3 hPa 0,0 l/m 0 min 0 min 93 W/m 11,3 km/h (2 Bft) 93,48 %
30.01.2018 10:20 3,2 C 3,9 C 3,3 C 98 % 15 lf 1029,3 hPa 0,0 l/m 0 min 0 min 96 W/m 15,8 km/h (3 Bft) 89,83 %
30.01.2018 10:22 3,3 C 3,9 C 2,8 C 98 % 15 lf 1029,3 hPa 0,0 l/m 0 min 0 min 84 W/m 15,8 km/h (3 Bft) 97,14 %
30.01.2018 10:24 3,3 C 3,3 C 2,8 C 98 % 15 lf 1029,4 hPa 0,0 l/m 0 min 0 min 83 W/m 13,5 km/h (3 Bft) 91,49 %
30.01.2018 10:26 3,3 C 3,9 C 2,8 C 98 % 15 lf 1029,3 hPa 0,0 l/m 0 min 0 min 82 W/m 15,8 km/h (3 Bft) 95,74 %
30.01.2018 10:28 3,3 C 3,9 C 2,8 C 98 % 15 lf 1029,3 hPa 0,0 l/m 0 min 0 min 68 W/m 15,8 km/h (3 Bft) 93,62 %
30.01.2018 10:30 3,4 C 3,9 C 2,8 C 98 % 15 lf 1029,4 hPa 0,0 l/m 0 min 0 min 84 W/m 15,8 km/h (3 Bft) 95,65 %
30.01.2018 10:32 3,4 C 3,9 C 3,3 C 98 % 15 lf 1029,4 hPa 0,0 l/m 0 min 0 min 85 W/m 15,8 km/h (3 Bft) 95,74 %
30.01.2018 10:34 3,4 C 3,9 C 3,3 C 98 % 15 lf 1029,5 hPa 0,0 l/m 0 min 0 min 83 W/m 13,5 km/h (3 Bft) 95,74 %
30.01.2018 10:36 3,4 C 3,9 C 3,3 C 98 % 15 lf 1029,4 hPa 0,0 l/m 0 min 0 min 92 W/m 13,5 km/h (3 Bft) 97,87 %
30.01.2018 10:38 3,4 C 3,9 C 3,3 C 98 % 15 lf 1029,4 hPa 0,0 l/m 0 min 0 min 71 W/m 13,5 km/h (3 Bft) 95,74 %
30.01.2018 10:40 3,4 C 3,9 C 3,3 C 98 % 15 lf 1029,4 hPa 0,0 l/m 0 min 0 min 68 W/m 13,5 km/h (3 Bft) 97,87 %
30.01.2018 10:42 3,5 C 3,9 C 3,3 C 98 % 15 lf 1029,5 hPa 0,0 l/m 0 min 0 min 98 W/m 9,0 km/h (2 Bft) 97,83 %
30.01.2018 10:44 3,5 C 3,9 C 3,3 C 98 % 15 lf 1029,4 hPa 0,0 l/m 0 min 0 min 95 W/m 11,3 km/h (2 Bft) 95,74 %
30.01.2018 10:46 3,6 C 3,9 C 3,3 C 98 % 15 lf 1029,5 hPa 0,0 l/m 0 min 0 min 103 W/m 11,3 km/h (2 Bft) 100,00 %
30.01.2018 10:48 3,6 C 4,4 C 3,3 C 98 % 15 lf 1029,5 hPa 0,0 l/m 0 min 0 min 111 W/m 13,5 km/h (3 Bft) 95,74 %
30.01.2018 10:50 3,6 C 3,9 C 3,3 C 98 % 15 lf 1029,5 hPa 0,0 l/m 0 min 0 min 95 W/m 18,0 km/h (3 Bft) 98,28 %
30.01.2018 10:52 3,7 C 3,9 C 3,3 C 98 % 15 lf 1029,5 hPa 0,0 l/m 0 min 0 min 72 W/m 15,8 km/h (3 Bft) 100,00 %
30.01.2018 10:54 3,7 C 3,9 C 3,3 C 98 % 15 lf 1029,5 hPa 0,0 l/m 0 min 0 min 94 W/m 15,8 km/h (3 Bft) 97,83 %
30.01.2018 10:56 3,7 C 3,9 C 3,3 C 98 % 15 lf 1029,4 hPa 0,0 l/m 0 min 0 min 96 W/m 15,8 km/h (3 Bft) 97,87 %
30.01.2018 10:58 3,7 C 3,9 C 3,3 C 98 % 15 lf 1029,5 hPa 0,0 l/m 0 min 0 min 75 W/m 11,3 km/h (2 Bft) 100,00 %
30.01.2018 11:00 3,7 C 3,9 C 3,3 C 98 % 15 lf 1029,5 hPa 0,0 l/m 0 min 0 min 70 W/m 13,5 km/h (3 Bft) 100,00 %
30.01.2018 11:02 3,7 C 3,9 C 3,3 C 98 % 15 lf 1029,3 hPa 0,0 l/m 0 min 0 min 102 W/m 18,0 km/h (3 Bft) 95,74 %
30.01.2018 11:04 3,7 C 3,9 C 3,3 C 98 % 15 lf 1029,3 hPa 0,0 l/m 0 min 0 min 82 W/m 15,8 km/h (3 Bft) 100,00 %
30.01.2018 11:06 3,7 C 3,9 C 3,3 C 98 % 15 lf 1029,3 hPa 0,0 l/m 0 min 0 min 84 W/m 13,5 km/h (3 Bft) 97,87 %
30.01.2018 11:08 3,7 C 3,9 C 3,3 C 98 % 15 lf 1029,2 hPa 0,0 l/m 0 min 0 min 86 W/m 11,3 km/h (2 Bft) 100,00 %
30.01.2018 11:10 3,8 C 3,9 C 3,3 C 98 % 15 lf 1029,2 hPa 0,0 l/m 0 min 0 min 86 W/m 11,3 km/h (2 Bft) 97,87 %
30.01.2018 11:12 3,8 C 3,9 C 3,3 C 98 % 15 lf 1029,2 hPa 0,0 l/m 0 min 0 min 63 W/m 9,0 km/h (2 Bft) 100,00 %
30.01.2018 11:14 3,8 C 3,9 C 3,9 C 98 % 15 lf 1029,2 hPa 0,0 l/m 0 min 0 min 71 W/m 11,3 km/h (2 Bft) 100,00 %
30.01.2018 11:16 3,8 C 4,4 C 3,9 C 98 % 15 lf 1029,3 hPa 0,0 l/m 0 min 0 min 91 W/m 11,3 km/h (2 Bft) 100,00 %
30.01.2018 11:18 3,9 C 4,4 C 3,9 C 98 % 15 lf 1029,2 hPa 0,0 l/m 0 min 0 min 135 W/m 15,8 km/h (3 Bft) 95,74 %
30.01.2018 11:20 3,9 C 4,4 C 3,9 C 98 % 15 lf 1029,2 hPa 0,0 l/m 0 min 0 min 123 W/m 15,8 km/h (3 Bft) 98,31 %
30.01.2018 11:22 3,9 C 4,4 C 3,9 C 98 % 15 lf 1029,2 hPa 0,0 l/m 0 min 0 min 123 W/m 15,8 km/h (3 Bft) 100,00 %
30.01.2018 11:24 4,0 C 4,4 C 3,9 C 98 % 15 lf 1029,2 hPa 0,0 l/m 0 min 0 min 128 W/m 13,5 km/h (3 Bft) 100,00 %
30.01.2018 11:26 4,0 C 4,4 C 3,9 C 98 % 15 lf 1029,2 hPa 0,0 l/m 0 min 0 min 121 W/m 9,0 km/h (2 Bft) 97,87 %
30.01.2018 11:28 4,1 C 5,0 C 4,4 C 98 % 15 lf 1029,2 hPa 0,0 l/m 0 min 0 min 127 W/m 11,3 km/h (2 Bft) 97,83 %
30.01.2018 11:30 4,1 C 4,4 C 3,9 C 98 % 15 lf 1029,1 hPa 0,0 l/m 0 min 0 min 133 W/m 15,8 km/h (3 Bft) 97,87 %
30.01.2018 11:32 4,2 C 5,0 C 4,4 C 98 % 15 lf 1029,2 hPa 0,0 l/m 0 min 0 min 147 W/m 13,5 km/h (3 Bft) 97,87 %
30.01.2018 11:34 4,2 C 5,0 C 4,4 C 98 % 15 lf 1029,2 hPa 0,0 l/m 0 min 0 min 150 W/m 15,8 km/h (3 Bft) 91,49 %
30.01.2018 11:36 4,2 C 4,4 C 4,4 C 98 % 15 lf 1029,1 hPa 0,0 l/m 0 min 0 min 123 W/m 18,0 km/h (3 Bft) 97,87 %
30.01.2018 11:38 4,3 C 5,0 C 4,4 C 98 % 14 lf 1029,1 hPa 0,0 l/m 0 min 0 min 139 W/m 13,5 km/h (3 Bft) 95,74 %
30.01.2018 11:40 4,3 C 5,0 C 4,4 C 98 % 12 lf 1029,1 hPa 0,0 l/m 2 min 0 min 188 W/m 20,3 km/h (4 Bft) 97,83 %
30.01.2018 11:42 4,3 C 5,0 C 4,4 C 98 % 9 lf 1029,1 hPa 0,0 l/m 0 min 0 min 178 W/m 20,3 km/h (4 Bft) 97,87 %
30.01.2018 11:44 4,3 C 5,0 C 4,4 C 98 % 5 lf 1029,1 hPa 0,0 l/m 0 min 0 min 168 W/m 15,8 km/h (3 Bft) 95,74 %
30.01.2018 11:46 4,4 C 5,6 C 4,4 C 98 % 3 lf 1029,1 hPa 0,0 l/m 2 min 0 min 195 W/m 18,0 km/h (3 Bft) 93,62 %
30.01.2018 11:48 4,4 C 5,0 C 5,0 C 98 % 2 lf 1029,0 hPa 0,0 l/m 2 min 0 min 227 W/m 18,0 km/h (3 Bft) 97,87 %
30.01.2018 11:50 4,5 C 5,6 C 5,0 C 98 % 2 lf 1028,9 hPa 0,0 l/m 2 min 0 min 193 W/m 13,5 km/h (3 Bft) 96,08 %
30.01.2018 11:52 4,6 C 6,1 C 5,0 C 98 % 1 lf 1028,9 hPa 0,0 l/m 2 min 0 min 217 W/m 13,5 km/h (3 Bft) 92,68 %
30.01.2018 11:54 4,6 C 6,1 C 5,6 C 98 % 1 lf 1029,0 hPa 0,0 l/m 2 min 0 min 253 W/m 9,0 km/h (2 Bft) 93,62 %
30.01.2018 11:56 4,7 C 6,1 C 5,6 C 98 % 1 lf 1028,9 hPa 0,0 l/m 2 min 0 min 269 W/m 9,0 km/h (2 Bft) 93,62 %
30.01.2018 11:58 4,8 C 6,7 C 5,6 C 98 % 0 lf 1028,8 hPa 0,0 l/m 2 min 0 min 237 W/m 13,5 km/h (3 Bft) 89,36 %
30.01.2018 12:00 4,9 C 6,7 C 5,6 C 99 % 0 lf 1028,8 hPa 0,0 l/m 2 min 0 min 212 W/m 18,0 km/h (3 Bft) 95,74 %
30.01.2018 12:02 4,9 C 6,7 C 5,6 C 99 % 0 lf 1028,8 hPa 0,0 l/m 2 min 0 min 249 W/m 11,3 km/h (2 Bft) 95,74 %
30.01.2018 12:04 4,9 C 7,2 C 5,6 C 99 % 0 lf 1028,7 hPa 0,0 l/m 2 min 0 min 279 W/m 11,3 km/h (2 Bft) 95,65 %
30.01.2018 12:06 5,1 C 7,8 C 5,6 C 99 % 0 lf 1028,8 hPa 0,0 l/m 2 min 0 min 299 W/m 13,5 km/h (3 Bft) 92,86 %
30.01.2018 12:08 5,1 C 7,2 C 6,1 C 98 % 0 lf 1028,7 hPa 0,0 l/m 2 min 0 min 277 W/m 20,3 km/h (4 Bft) 95,74 %
30.01.2018 12:10 5,2 C 7,8 C 5,6 C 98 % 0 lf 1028,7 hPa 0,0 l/m 2 min 0 min 328 W/m 18,0 km/h (3 Bft) 95,65 %
30.01.2018 12:12 5,2 C 7,8 C 5,6 C 98 % 0 lf 1028,7 hPa 0,0 l/m 2 min 0 min 236 W/m 15,8 km/h (3 Bft) 93,62 %
30.01.2018 12:14 5,2 C 7,2 C 5,6 C 98 % 0 lf 1028,7 hPa 0,0 l/m 2 min 0 min 231 W/m 20,3 km/h (4 Bft) 97,87 %
30.01.2018 12:16 5,2 C 6,7 C 5,6 C 98 % 0 lf 1028,7 hPa 0,0 l/m 2 min 0 min 228 W/m 20,3 km/h (4 Bft) 97,87 %
30.01.2018 12:18 5,2 C 7,2 C 5,6 C 98 % 0 lf 1028,7 hPa 0,0 l/m 2 min 0 min 217 W/m 22,5 km/h (4 Bft) 93,62 %
30.01.2018 12:20 5,2 C 7,8 C 5,6 C 98 % 0 lf 1028,6 hPa 0,0 l/m 2 min 0 min 381 W/m 20,3 km/h (4 Bft) 97,87 %
30.01.2018 12:22 5,2 C 8,3 C 5,6 C 98 % 0 lf 1028,6 hPa 0,0 l/m 2 min 0 min 313 W/m 15,8 km/h (3 Bft) 95,65 %
30.01.2018 12:24 5,2 C 8,3 C 5,6 C 99 % 0 lf 1028,6 hPa 0,0 l/m 2 min 0 min 326 W/m 24,8 km/h (4 Bft) 95,74 %
30.01.2018 12:26 5,3 C 8,9 C 5,6 C 99 % 0 lf 1028,5 hPa 0,0 l/m 2 min 0 min 343 W/m 20,3 km/h (4 Bft) 91,49 %
30.01.2018 12:28 5,3 C 9,4 C 5,6 C 99 % 0 lf 1028,5 hPa 0,0 l/m 2 min 0 min 336 W/m 15,8 km/h (3 Bft) 95,74 %
30.01.2018 12:30 5,4 C 10,0 C 6,1 C 98 % 0 lf 1028,5 hPa 0,0 l/m 2 min 0 min 338 W/m 20,3 km/h (4 Bft) 100,00 %
30.01.2018 12:32 5,5 C 10,0 C 6,1 C 98 % 0 lf 1028,4 hPa 0,0 l/m 2 min 0 min 341 W/m 22,5 km/h (4 Bft) 95,74 %
30.01.2018 12:34 5,6 C 10,6 C 6,1 C 98 % 0 lf 1028,5 hPa 0,0 l/m 2 min 0 min 381 W/m 22,5 km/h (4 Bft) 100,00 %
30.01.2018 12:36 5,7 C 11,1 C 6,1 C 99 % 0 lf 1028,4 hPa 0,0 l/m 2 min 0 min 370 W/m 20,3 km/h (4 Bft) 97,92 %
30.01.2018 12:38 5,8 C 12,2 C 6,1 C 99 % 0 lf 1028,4 hPa 0,0 l/m 2 min 0 min 346 W/m 18,0 km/h (3 Bft) 100,00 %
30.01.2018 12:40 5,9 C 12,2 C 6,1 C 99 % 0 lf 1028,4 hPa 0,0 l/m 2 min 0 min 315 W/m 15,8 km/h (3 Bft) 97,87 %
30.01.2018 12:42 5,9 C 11,1 C 5,6 C 99 % 0 lf 1028,4 hPa 0,0 l/m 2 min 0 min 280 W/m 24,8 km/h (4 Bft) 95,74 %
30.01.2018 12:44 5,9 C 10,6 C 5,6 C 99 % 0 lf 1028,4 hPa 0,0 l/m 2 min 0 min 231 W/m 22,5 km/h (4 Bft) 95,74 %
30.01.2018 12:46 5,9 C 9,4 C 5,0 C 99 % 0 lf 1028,4 hPa 0,0 l/m 0 min 0 min 180 W/m 22,5 km/h (4 Bft) 97,83 %
30.01.2018 12:48 5,9 C 8,9 C 5,0 C 99 % 0 lf 1028,4 hPa 0,0 l/m 0 min 0 min 198 W/m 22,5 km/h (4 Bft) 95,74 %
30.01.2018 12:50 5,9 C 8,9 C 5,0 C 99 % 0 lf 1028,4 hPa 0,0 l/m 0 min 0 min 163 W/m 20,3 km/h (4 Bft) 97,92 %
30.01.2018 12:52 5,9 C 7,8 C 5,0 C 98 % 0 lf 1028,4 hPa 0,0 l/m 0 min 0 min 167 W/m 24,8 km/h (4 Bft) 97,87 %
30.01.2018 12:54 5,8 C 8,3 C 5,0 C 98 % 0 lf 1028,4 hPa 0,0 l/m 0 min 0 min 168 W/m 22,5 km/h (4 Bft) 97,87 %
30.01.2018 12:56 5,8 C 8,3 C 5,6 C 98 % 0 lf 1028,4 hPa 0,0 l/m 0 min 0 min 191 W/m 18,0 km/h (3 Bft) 97,87 %
30.01.2018 12:58 5,9 C 8,3 C 5,6 C 98 % 0 lf 1028,4 hPa 0,0 l/m 2 min 0 min 202 W/m 15,8 km/h (3 Bft) 95,65 %
30.01.2018 13:00 5,9 C 8,9 C 5,6 C 98 % 0 lf 1028,4 hPa 0,0 l/m 2 min 0 min 215 W/m 13,5 km/h (3 Bft) 95,74 %
30.01.2018 13:02 5,9 C 9,4 C 6,1 C 98 % 0 lf 1028,4 hPa 0,0 l/m 2 min 0 min 272 W/m 15,8 km/h (3 Bft) 93,62 %
30.01.2018 13:04 6,0 C 11,1 C 6,1 C 98 % 0 lf 1028,4 hPa 0,0 l/m 2 min 0 min 239 W/m 9,0 km/h (2 Bft) 95,74 %
30.01.2018 13:08 6,1 C 10,6 C 5,6 C 98 % 0 lf 1028,3 hPa 0,0 l/m 0 min 0 min 194 W/m 11,3 km/h (2 Bft) 95,74 %
30.01.2018 13:10 6,2 C 10,6 C 5,6 C 98 % 0 lf 1028,3 hPa 0,0 l/m 0 min 0 min 192 W/m 15,8 km/h (3 Bft) 95,65 %
30.01.2018 13:12 6,2 C 9,4 C 5,6 C 98 % 0 lf 1028,3 hPa 0,0 l/m 0 min 0 min 160 W/m 13,5 km/h (3 Bft) 95,74 %
30.01.2018 13:14 6,2 C 10,0 C 5,6 C 98 % 0 lf 1028,3 hPa 0,0 l/m 0 min 0 min 172 W/m 20,3 km/h (4 Bft) 93,62 %
30.01.2018 13:16 6,2 C 9,4 C 5,6 C 98 % 0 lf 1028,3 hPa 0,0 l/m 0 min 0 min 173 W/m 22,5 km/h (4 Bft) 91,49 %
30.01.2018 13:18 6,2 C 9,4 C 5,6 C 97 % 0 lf 1028,2 hPa 0,0 l/m 0 min 0 min 188 W/m 20,3 km/h (4 Bft) 95,74 %
30.01.2018 13:20 6,2 C 8,9 C 5,6 C 97 % 0 lf 1028,2 hPa 0,0 l/m 0 min 0 min 168 W/m 22,5 km/h (4 Bft) 97,87 %
30.01.2018 13:22 6,3 C 9,4 C 5,6 C 97 % 0 lf 1028,2 hPa 0,0 l/m 2 min 0 min 277 W/m 22,5 km/h (4 Bft) 93,48 %
30.01.2018 13:24 6,3 C 9,4 C 5,6 C 97 % 0 lf 1028,0 hPa 0,0 l/m 2 min 0 min 255 W/m 20,3 km/h (4 Bft) 95,74 %
30.01.2018 13:26 6,3 C 10,0 C 5,6 C 97 % 0 lf 1028,1 hPa 0,0 l/m 2 min 0 min 225 W/m 15,8 km/h (3 Bft) 95,74 %
30.01.2018 13:28 6,4 C 11,1 C 5,6 C 96 % 0 lf 1028,0 hPa 0,0 l/m 2 min 0 min 282 W/m 9,0 km/h (2 Bft) 95,74 %
30.01.2018 13:30 6,4 C 11,7 C 6,1 C 96 % 0 lf 1028,0 hPa 0,0 l/m 2 min 0 min 298 W/m 15,8 km/h (3 Bft) 97,87 %
30.01.2018 13:32 6,4 C 11,1 C 6,1 C 96 % 0 lf 1028,0 hPa 0,0 l/m 2 min 0 min 260 W/m 22,5 km/h (4 Bft) 94,44 %
30.01.2018 13:34 6,5 C 11,1 C 6,1 C 96 % 0 lf 1027,9 hPa 0,0 l/m 2 min 0 min 238 W/m 20,3 km/h (4 Bft) 93,62 %
30.01.2018 13:36 6,6 C 11,1 C 6,1 C 96 % 0 lf 1027,9 hPa 0,0 l/m 2 min 0 min 235 W/m 18,0 km/h (3 Bft) 93,48 %
30.01.2018 13:38 6,6 C 11,1 C 6,1 C 96 % 0 lf 1027,8 hPa 0,0 l/m 2 min 0 min 274 W/m 18,0 km/h (3 Bft) 95,74 %
30.01.2018 13:40 6,7 C 11,7 C 6,1 C 95 % 0 lf 1027,8 hPa 0,0 l/m 2 min 0 min 266 W/m 15,8 km/h (3 Bft) 95,74 %
30.01.2018 13:42 6,7 C 11,7 C 6,1 C 95 % 0 lf 1027,8 hPa 0,0 l/m 2 min 0 min 229 W/m 13,5 km/h (3 Bft) 97,87 %
30.01.2018 13:44 6,8 C 12,2 C 6,1 C 95 % 0 lf 1027,8 hPa 0,0 l/m 2 min 0 min 310 W/m 18,0 km/h (3 Bft) 100,00 %
30.01.2018 13:46 6,9 C 12,2 C 6,1 C 95 % 0 lf 1027,8 hPa 0,0 l/m 2 min 0 min 310 W/m 18,0 km/h (3 Bft) 95,83 %
30.01.2018 13:48 6,9 C 11,7 C 6,7 C 94 % 0 lf 1027,7 hPa 0,0 l/m 2 min 0 min 280 W/m 15,8 km/h (3 Bft) 97,83 %
30.01.2018 13:50 7,0 C 12,2 C 6,7 C 94 % 0 lf 1027,7 hPa 0,0 l/m 2 min 0 min 305 W/m 13,5 km/h (3 Bft) 98,31 %
30.01.2018 13:52 7,1 C 11,7 C 6,7 C 94 % 0 lf 1027,7 hPa 0,0 l/m 2 min 0 min 341 W/m 13,5 km/h (3 Bft) 94,29 %
30.01.2018 13:54 7,1 C 12,2 C 7,2 C 94 % 0 lf 1027,6 hPa 0,0 l/m 2 min 0 min 333 W/m 15,8 km/h (3 Bft) 100,00 %
30.01.2018 13:56 7,2 C 12,8 C 7,2 C 93 % 0 lf 1027,6 hPa 0,0 l/m 2 min 0 min 315 W/m 15,8 km/h (3 Bft) 100,00 %
30.01.2018 13:58 7,3 C 12,2 C 7,2 C 93 % 0 lf 1027,6 hPa 0,0 l/m 2 min 0 min 280 W/m 15,8 km/h (3 Bft) 100,00 %
30.01.2018 14:00 7,3 C 11,7 C 6,7 C 93 % 0 lf 1027,6 hPa 0,0 l/m 2 min 0 min 274 W/m 20,3 km/h (4 Bft) 100,00 %
30.01.2018 14:02 7,3 C 11,1 C 6,7 C 92 % 0 lf 1027,6 hPa 0,0 l/m 2 min 0 min 217 W/m 13,5 km/h (3 Bft) 96,08 %
30.01.2018 14:04 7,3 C 10,6 C 6,7 C 92 % 0 lf 1027,5 hPa 0,0 l/m 2 min 0 min 205 W/m 15,8 km/h (3 Bft) 100,00 %
30.01.2018 14:06 7,3 C 10,0 C 6,7 C 91 % 0 lf 1027,5 hPa 0,0 l/m 2 min 0 min 195 W/m 15,8 km/h (3 Bft) 97,87 %
30.01.2018 14:08 7,3 C 9,4 C 6,1 C 91 % 0 lf 1027,4 hPa 0,0 l/m 0 min 0 min 151 W/m 11,3 km/h (2 Bft) 97,87 %
30.01.2018 14:10 7,3 C 9,4 C 6,1 C 90 % 0 lf 1027,4 hPa 0,0 l/m 0 min 0 min 141 W/m 15,8 km/h (3 Bft) 97,83 %
30.01.2018 14:12 7,3 C 8,9 C 6,1 C 90 % 0 lf 1027,4 hPa 0,0 l/m 0 min 0 min 142 W/m 13,5 km/h (3 Bft) 95,74 %
30.01.2018 14:14 7,3 C 9,4 C 6,7 C 90 % 0 lf 1027,4 hPa 0,0 l/m 0 min 0 min 172 W/m 9,0 km/h (2 Bft) 95,74 %
30.01.2018 14:16 7,3 C 9,4 C 6,7 C 90 % 0 lf 1027,3 hPa 0,0 l/m 2 min 0 min 197 W/m 6,8 km/h (2 Bft) 97,87 %
30.01.2018 14:18 7,4 C 9,4 C 6,7 C 90 % 0 lf 1027,3 hPa 0,0 l/m 0 min 0 min 175 W/m 13,5 km/h (3 Bft) 97,87 %
30.01.2018 14:20 7,4 C 10,0 C 6,7 C 90 % 0 lf 1027,3 hPa 0,0 l/m 2 min 0 min 202 W/m 11,3 km/h (2 Bft) 95,74 %
30.01.2018 14:22 7,4 C 10,6 C 6,7 C 89 % 0 lf 1027,3 hPa 0,0 l/m 2 min 0 min 199 W/m 11,3 km/h (2 Bft) 95,65 %
30.01.2018 14:24 7,4 C 10,0 C 6,7 C 89 % 0 lf 1027,2 hPa 0,0 l/m 2 min 0 min 205 W/m 15,8 km/h (3 Bft) 95,74 %
30.01.2018 14:26 7,4 C 10,0 C 6,7 C 89 % 0 lf 1027,1 hPa 0,0 l/m 2 min 0 min 196 W/m 11,3 km/h (2 Bft) 89,36 %
30.01.2018 14:28 7,4 C 10,0 C 6,7 C 89 % 0 lf 1027,2 hPa 0,0 l/m 2 min 0 min 182 W/m 15,8 km/h (3 Bft) 95,74 %
30.01.2018 14:30 7,4 C 9,4 C 6,7 C 89 % 0 lf 1027,1 hPa 0,0 l/m 2 min 0 min 172 W/m 9,0 km/h (2 Bft) 93,62 %
30.01.2018 14:32 7,4 C 8,9 C 6,1 C 88 % 0 lf 1027,0 hPa 0,0 l/m 0 min 0 min 154 W/m 6,8 km/h (2 Bft) 93,48 %
30.01.2018 14:34 7,4 C 9,4 C 6,1 C 88 % 0 lf 1027,0 hPa 0,0 l/m 0 min 0 min 152 W/m 13,5 km/h (3 Bft) 93,62 %
30.01.2018 14:36 7,4 C 9,4 C 6,1 C 88 % 0 lf 1027,0 hPa 0,0 l/m 0 min 0 min 161 W/m 11,3 km/h (2 Bft) 93,62 %
30.01.2018 14:38 7,4 C 9,4 C 6,1 C 88 % 0 lf 1026,9 hPa 0,0 l/m 2 min 0 min 175 W/m 11,3 km/h (2 Bft) 95,74 %
30.01.2018 14:40 7,4 C 9,4 C 6,1 C 88 % 0 lf 1026,9 hPa 0,0 l/m 2 min 0 min 168 W/m 11,3 km/h (2 Bft) 95,74 %
30.01.2018 14:42 7,4 C 10,0 C 6,1 C 88 % 0 lf 1026,9 hPa 0,0 l/m 0 min 0 min 160 W/m 13,5 km/h (3 Bft) 87,23 %
30.01.2018 14:44 7,4 C 10,0 C 6,1 C 88 % 0 lf 1026,8 hPa 0,0 l/m 0 min 0 min 158 W/m 13,5 km/h (3 Bft) 95,65 %
30.01.2018 14:46 7,4 C 10,0 C 6,1 C 88 % 0 lf 1026,8 hPa 0,0 l/m 2 min 0 min 178 W/m 18,0 km/h (3 Bft) 95,74 %
30.01.2018 14:48 7,4 C 10,0 C 6,1 C 88 % 0 lf 1026,7 hPa 0,0 l/m 2 min 0 min 168 W/m 15,8 km/h (3 Bft) 97,87 %
30.01.2018 14:50 7,4 C 10,0 C 6,1 C 88 % 0 lf 1026,7 hPa 0,0 l/m 2 min 0 min 163 W/m 9,0 km/h (2 Bft) 95,74 %
30.01.2018 14:52 7,4 C 10,0 C 6,1 C 88 % 0 lf 1026,7 hPa 0,0 l/m 2 min 0 min 155 W/m 9,0 km/h (2 Bft) 95,74 %
30.01.2018 14:54 7,4 C 10,0 C 6,1 C 87 % 0 lf 1026,7 hPa 0,0 l/m 0 min 0 min 141 W/m 18,0 km/h (3 Bft) 97,87 %
30.01.2018 14:56 7,4 C 9,4 C 6,1 C 87 % 0 lf 1026,7 hPa 0,0 l/m 0 min 0 min 143 W/m 13,5 km/h (3 Bft) 97,83 %
30.01.2018 14:58 7,4 C 8,9 C 6,1 C 87 % 0 lf 1026,7 hPa 0,0 l/m 0 min 0 min 144 W/m 18,0 km/h (3 Bft) 97,87 %
30.01.2018 15:00 7,3 C 9,4 C 6,1 C 87 % 0 lf 1026,7 hPa 0,0 l/m 2 min 0 min 154 W/m 9,0 km/h (2 Bft) 97,87 %
30.01.2018 15:02 7,3 C 9,4 C 6,1 C 87 % 0 lf 1026,7 hPa 0,0 l/m 2 min 0 min 158 W/m 11,3 km/h (2 Bft) 95,74 %
30.01.2018 15:04 7,3 C 8,9 C 6,1 C 86 % 0 lf 1026,7 hPa 0,0 l/m 2 min 0 min 154 W/m 13,5 km/h (3 Bft) 97,87 %
30.01.2018 15:06 7,3 C 9,4 C 6,1 C 86 % 0 lf 1026,7 hPa 0,0 l/m 2 min 0 min 146 W/m 18,0 km/h (3 Bft) 100,00 %
30.01.2018 15:08 7,3 C 9,4 C 5,6 C 86 % 0 lf 1026,7 hPa 0,0 l/m 2 min 0 min 148 W/m 15,8 km/h (3 Bft) 95,74 %
30.01.2018 15:10 7,3 C 9,4 C 5,6 C 86 % 0 lf 1026,7 hPa 0,0 l/m 2 min 0 min 163 W/m 20,3 km/h (4 Bft) 97,87 %
30.01.2018 15:12 7,3 C 10,6 C 5,6 C 86 % 0 lf 1026,6 hPa 0,0 l/m 2 min 0 min 177 W/m 18,0 km/h (3 Bft) 95,74 %
30.01.2018 15:14 7,3 C 10,6 C 6,1 C 85 % 0 lf 1026,6 hPa 0,0 l/m 2 min 0 min 185 W/m 13,5 km/h (3 Bft) 100,00 %
30.01.2018 15:16 7,3 C 11,1 C 6,1 C 85 % 0 lf 1026,5 hPa 0,0 l/m 2 min 0 min 205 W/m 13,5 km/h (3 Bft) 97,87 %
30.01.2018 15:18 7,4 C 11,1 C 6,1 C 85 % 0 lf 1026,5 hPa 0,0 l/m 2 min 0 min 198 W/m 13,5 km/h (3 Bft) 97,87 %
30.01.2018 15:20 7,4 C 11,1 C 6,1 C 85 % 0 lf 1026,5 hPa 0,0 l/m 2 min 0 min 190 W/m 11,3 km/h (2 Bft) 100,00 %
30.01.2018 15:22 7,4 C 11,1 C 6,7 C 85 % 0 lf 1026,5 hPa 0,0 l/m 2 min 0 min 175 W/m 11,3 km/h (2 Bft) 100,00 %
30.01.2018 15:24 7,4 C 11,1 C 6,7 C 85 % 0 lf 1026,5 hPa 0,0 l/m 2 min 0 min 180 W/m 15,8 km/h (3 Bft) 100,00 %
30.01.2018 15:26 7,5 C 10,0 C 6,7 C 85 % 0 lf 1026,5 hPa 0,0 l/m 2 min 0 min 159 W/m 20,3 km/h (4 Bft) 97,87 %
30.01.2018 15:28 7,5 C 9,4 C 6,7 C 85 % 0 lf 1026,4 hPa 0,0 l/m 2 min 0 min 133 W/m 13,5 km/h (3 Bft) 100,00 %
30.01.2018 15:30 7,4 C 9,4 C 6,7 C 84 % 0 lf 1026,4 hPa 0,0 l/m 2 min 0 min 151 W/m 20,3 km/h (4 Bft) 97,83 %
30.01.2018 15:32 7,4 C 9,4 C 6,7 C 84 % 0 lf 1026,3 hPa 0,0 l/m 2 min 0 min 150 W/m 9,0 km/h (2 Bft) 97,87 %
30.01.2018 15:34 7,4 C 9,4 C 6,7 C 84 % 0 lf 1026,4 hPa 0,0 l/m 2 min 0 min 148 W/m 15,8 km/h (3 Bft) 93,62 %
30.01.2018 15:36 7,4 C 9,4 C 6,1 C 84 % 0 lf 1026,3 hPa 0,0 l/m 2 min 0 min 144 W/m 9,0 km/h (2 Bft) 95,74 %
30.01.2018 15:38 7,4 C 9,4 C 6,7 C 84 % 0 lf 1026,3 hPa 0,0 l/m 2 min 0 min 154 W/m 6,8 km/h (2 Bft) 93,62 %
30.01.2018 15:40 7,4 C 8,9 C 6,7 C 84 % 0 lf 1026,2 hPa 0,0 l/m 2 min 0 min 145 W/m 9,0 km/h (2 Bft) 97,87 %
30.01.2018 15:42 7,4 C 9,4 C 6,7 C 84 % 0 lf 1026,2 hPa 0,0 l/m 2 min 0 min 149 W/m 9,0 km/h (2 Bft) 97,83 %
30.01.2018 15:44 7,4 C 8,9 C 6,7 C 84 % 0 lf 1026,1 hPa 0,0 l/m 2 min 0 min 149 W/m 9,0 km/h (2 Bft) 97,87 %
30.01.2018 15:46 7,4 C 8,9 C 6,7 C 84 % 0 lf 1026,1 hPa 0,0 l/m 2 min 0 min 137 W/m 9,0 km/h (2 Bft) 93,62 %
30.01.2018 15:48 7,4 C 8,9 C 6,1 C 84 % 0 lf 1026,1 hPa 0,0 l/m 2 min 0 min 133 W/m 11,3 km/h (2 Bft) 97,87 %
30.01.2018 15:50 7,4 C 8,9 C 6,1 C 84 % 0 lf 1026,1 hPa 0,0 l/m 2 min 0 min 119 W/m 9,0 km/h (2 Bft) 93,62 %
30.01.2018 15:52 7,4 C 8,9 C 6,7 C 84 % 0 lf 1026,1 hPa 0,0 l/m 2 min 0 min 121 W/m 6,8 km/h (2 Bft) 93,62 %
30.01.2018 15:54 7,4 C 8,3 C 6,7 C 84 % 0 lf 1026,0 hPa 0,0 l/m 2 min 0 min 133 W/m 6,8 km/h (2 Bft) 97,83 %
30.01.2018 15:56 7,4 C 8,3 C 6,7 C 84 % 0 lf 1026,1 hPa 0,0 l/m 2 min 0 min 141 W/m 11,3 km/h (2 Bft) 95,74 %
30.01.2018 15:58 7,4 C 8,3 C 6,7 C 84 % 0 lf 1026,0 hPa 0,0 l/m 2 min 0 min 131 W/m 9,0 km/h (2 Bft) 95,74 %
30.01.2018 16:00 7,4 C 8,3 C 6,7 C 84 % 0 lf 1026,0 hPa 0,0 l/m 2 min 0 min 134 W/m 6,8 km/h (2 Bft) 97,92 %
30.01.2018 16:02 7,4 C 8,3 C 6,7 C 84 % 0 lf 1026,0 hPa 0,0 l/m 2 min 0 min 121 W/m 9,0 km/h (2 Bft) 97,87 %
30.01.2018 16:04 7,4 C 8,3 C 6,1 C 84 % 0 lf 1026,0 hPa 0,0 l/m 2 min 0 min 115 W/m 9,0 km/h (2 Bft) 95,74 %
30.01.2018 16:06 7,4 C 8,3 C 6,1 C 84 % 0 lf 1025,9 hPa 0,0 l/m 2 min 0 min 116 W/m 6,8 km/h (2 Bft) 86,96 %
30.01.2018 16:08 7,4 C 8,3 C 6,1 C 84 % 0 lf 1025,9 hPa 0,0 l/m 2 min 0 min 110 W/m 6,8 km/h (2 Bft) 95,74 %
30.01.2018 16:10 7,4 C 8,3 C 6,1 C 84 % 0 lf 1025,9 hPa 0,0 l/m 2 min 0 min 97 W/m 6,8 km/h (2 Bft) 97,87 %
30.01.2018 16:12 7,3 C 7,8 C 6,1 C 84 % 0 lf 1025,9 hPa 0,0 l/m 2 min 0 min 106 W/m 11,3 km/h (2 Bft) 97,87 %
30.01.2018 16:14 7,3 C 7,8 C 6,1 C 84 % 0 lf 1025,8 hPa 0,0 l/m 2 min 0 min 98 W/m 11,3 km/h (2 Bft) 93,62 %
30.01.2018 16:16 7,3 C 7,8 C 6,1 C 84 % 0 lf 1025,8 hPa 0,0 l/m 2 min 0 min 88 W/m 9,0 km/h (2 Bft) 95,74 %
30.01.2018 16:18 7,3 C 7,8 C 6,1 C 84 % 0 lf 1025,8 hPa 0,0 l/m 2 min 0 min 82 W/m 9,0 km/h (2 Bft) 100,00 %
30.01.2018 16:20 7,3 C 7,8 C 6,1 C 84 % 0 lf 1025,7 hPa 0,0 l/m 2 min 0 min 74 W/m 6,8 km/h (2 Bft) 97,87 %
30.01.2018 16:22 7,3 C 7,8 C 5,6 C 84 % 0 lf 1025,7 hPa 0,0 l/m 0 min 0 min 63 W/m 6,8 km/h (2 Bft) 91,49 %
30.01.2018 16:24 7,3 C 7,8 C 5,6 C 84 % 0 lf 1025,7 hPa 0,0 l/m 0 min 0 min 59 W/m 6,8 km/h (2 Bft) 95,74 %
30.01.2018 16:26 7,3 C 7,2 C 5,6 C 84 % 0 lf 1025,7 hPa 0,0 l/m 0 min 0 min 53 W/m 4,5 km/h (1 Bft) 97,87 %
30.01.2018 16:28 7,3 C 7,2 C 5,6 C 84 % 0 lf 1025,7 hPa 0,0 l/m 0 min 0 min 54 W/m 4,5 km/h (1 Bft) 97,87 %
30.01.2018 16:30 7,2 C 7,2 C 5,6 C 84 % 0 lf 1025,7 hPa 0,0 l/m 0 min 0 min 54 W/m 4,5 km/h (1 Bft) 97,83 %
30.01.2018 16:32 7,2 C 7,2 C 5,6 C 84 % 0 lf 1025,7 hPa 0,0 l/m 0 min 0 min 48 W/m 6,8 km/h (2 Bft) 97,92 %
30.01.2018 16:34 7,2 C 7,2 C 5,6 C 84 % 0 lf 1025,7 hPa 0,0 l/m 0 min 0 min 45 W/m 4,5 km/h (1 Bft) 95,74 %
30.01.2018 16:36 7,2 C 7,2 C 5,6 C 84 % 0 lf 1025,7 hPa 0,0 l/m 0 min 0 min 42 W/m 4,5 km/h (1 Bft) 95,74 %
30.01.2018 16:38 7,2 C 7,2 C 5,6 C 84 % 0 lf 1025,7 hPa 0,0 l/m 0 min 0 min 34 W/m 4,5 km/h (1 Bft) 95,74 %
30.01.2018 16:40 7,2 C 7,2 C 5,6 C 84 % 0 lf 1025,7 hPa 0,0 l/m 0 min 0 min 30 W/m 4,5 km/h (1 Bft) 93,48 %
30.01.2018 16:42 7,2 C 7,2 C 5,6 C 84 % 0 lf 1025,7 hPa 0,0 l/m 0 min 0 min 28 W/m 2,3 km/h (1 Bft) 95,74 %
30.01.2018 16:44 7,2 C 6,7 C 5,6 C 84 % 0 lf 1025,7 hPa 0,0 l/m 0 min 0 min 27 W/m 4,5 km/h (1 Bft) 93,62 %
30.01.2018 16:46 7,1 C 6,7 C 5,6 C 84 % 0 lf 1025,6 hPa 0,0 l/m 0 min 0 min 25 W/m 4,5 km/h (1 Bft) 95,74 %
30.01.2018 16:48 7,1 C 6,7 C 5,6 C 84 % 0 lf 1025,6 hPa 0,0 l/m 0 min 0 min 25 W/m 4,5 km/h (1 Bft) 91,49 %
30.01.2018 16:50 7,1 C 6,7 C 5,6 C 84 % 0 lf 1025,5 hPa 0,0 l/m 0 min 0 min 25 W/m 2,3 km/h (1 Bft) 93,62 %
30.01.2018 16:52 7,1 C 6,7 C 5,0 C 84 % 0 lf 1025,5 hPa 0,0 l/m 0 min 0 min 27 W/m 2,3 km/h (1 Bft) 93,48 %
30.01.2018 16:54 7,1 C 6,7 C 5,0 C 84 % 0 lf 1025,4 hPa 0,0 l/m 2 min 0 min 30 W/m 2,3 km/h (1 Bft) 95,74 %
30.01.2018 16:56 7,0 C 6,7 C 5,0 C 84 % 0 lf 1025,3 hPa 0,0 l/m 2 min 0 min 30 W/m 4,5 km/h (1 Bft) 93,62 %
30.01.2018 16:58 7,0 C 6,7 C 5,0 C 84 % 0 lf 1025,3 hPa 0,0 l/m 2 min 0 min 37 W/m 4,5 km/h (1 Bft) 91,49 %
30.01.2018 17:00 7,0 C 6,7 C 5,0 C 84 % 0 lf 1025,3 hPa 0,0 l/m 2 min 0 min 39 W/m 6,8 km/h (2 Bft) 93,62 %
30.01.2018 17:02 7,0 C 6,7 C 5,0 C 84 % 0 lf 1025,3 hPa 0,0 l/m 2 min 0 min 32 W/m 4,5 km/h (1 Bft) 93,62 %
30.01.2018 17:04 7,0 C 6,7 C 4,4 C 84 % 0 lf 1025,2 hPa 0,0 l/m 2 min 0 min 25 W/m 4,5 km/h (1 Bft) 93,48 %
30.01.2018 17:06 7,0 C 6,1 C 4,4 C 84 % 0 lf 1025,2 hPa 0,0 l/m 2 min 0 min 20 W/m 6,8 km/h (2 Bft) 93,62 %
30.01.2018 17:08 6,9 C 6,1 C 4,4 C 84 % 0 lf 1025,1 hPa 0,0 l/m 0 min 0 min 18 W/m 4,5 km/h (1 Bft) 93,62 %
30.01.2018 17:10 6,9 C 6,1 C 3,9 C 84 % 0 lf 1025,1 hPa 0,0 l/m 0 min 0 min 15 W/m 2,3 km/h (1 Bft) 95,74 %
30.01.2018 17:12 6,9 C 6,1 C 3,9 C 84 % 0 lf 1025,1 hPa 0,0 l/m 0 min 0 min 13 W/m 4,5 km/h (1 Bft) 97,87 %
30.01.2018 17:14 6,9 C 6,1 C 3,9 C 84 % 0 lf 1025,1 hPa 0,0 l/m 0 min 0 min 11 W/m 9,0 km/h (2 Bft) 97,87 %
30.01.2018 17:16 6,8 C 5,6 C 3,9 C 84 % 0 lf 1025,1 hPa 0,0 l/m 0 min 0 min 9 W/m 6,8 km/h (2 Bft) 93,48 %
30.01.2018 17:18 6,8 C 5,6 C 3,3 C 84 % 0 lf 1025,1 hPa 0,0 l/m 0 min 0 min 8 W/m 4,5 km/h (1 Bft) 93,62 %
30.01.2018 17:20 6,8 C 5,6 C 3,3 C 84 % 0 lf 1025,0 hPa 0,0 l/m 0 min 0 min 7 W/m 9,0 km/h (2 Bft) 95,74 %
30.01.2018 17:22 6,7 C 5,6 C 3,3 C 84 % 0 lf 1025,0 hPa 0,0 l/m 0 min 0 min 6 W/m 6,8 km/h (2 Bft) 89,36 %
30.01.2018 17:24 6,7 C 5,6 C 3,3 C 84 % 0 lf 1024,9 hPa 0,0 l/m 0 min 0 min 5 W/m 9,0 km/h (2 Bft) 95,74 %
30.01.2018 17:26 6,7 C 5,6 C 3,3 C 84 % 0 lf 1025,0 hPa 0,0 l/m 0 min 0 min 5 W/m 6,8 km/h (2 Bft) 95,74 %
30.01.2018 17:28 6,6 C 5,6 C 3,3 C 84 % 0 lf 1024,8 hPa 0,0 l/m 0 min 0 min 5 W/m 6,8 km/h (2 Bft) 100,00 %
30.01.2018 17:30 6,6 C 5,0 C 3,3 C 84 % 0 lf 1024,9 hPa 0,0 l/m 0 min 0 min 5 W/m 6,8 km/h (2 Bft) 91,49 %
30.01.2018 17:32 6,6 C 5,0 C 2,8 C 84 % 0 lf 1024,9 hPa 0,0 l/m 0 min 0 min 2 W/m 4,5 km/h (1 Bft) 97,87 %
30.01.2018 17:34 6,5 C 5,0 C 2,8 C 84 % 0 lf 1024,8 hPa 0,0 l/m 0 min 0 min 0 W/m 4,5 km/h (1 Bft) 100,00 %
30.01.2018 17:36 6,5 C 4,4 C 2,8 C 84 % 0 lf 1024,7 hPa 0,0 l/m 0 min 0 min 0 W/m 2,3 km/h (1 Bft) 100,00 %
30.01.2018 17:38 6,4 C 4,4 C 2,2 C 84 % 0 lf 1024,7 hPa 0,0 l/m 0 min 0 min 0 W/m 0,0 km/h (0 Bft) 100,00 %
30.01.2018 17:40 6,4 C 4,4 C 2,2 C 84 % 0 lf 1024,6 hPa 0,0 l/m 0 min 0 min 0 W/m 2,3 km/h (1 Bft) 100,00 %
30.01.2018 17:42 6,4 C 4,4 C 2,2 C 84 % 0 lf 1024,6 hPa 0,0 l/m 0 min 0 min 0 W/m 6,8 km/h (2 Bft) 97,87 %
30.01.2018 17:44 6,3 C 5,0 C 1,7 C 85 % 0 lf 1024,5 hPa 0,0 l/m 0 min 0 min 0 W/m 6,8 km/h (2 Bft) 97,87 %
30.01.2018 17:46 6,3 C 4,4 C 1,7 C 85 % 0 lf 1024,5 hPa 0,0 l/m 0 min 0 min 0 W/m 4,5 km/h (1 Bft) 97,87 %
30.01.2018 17:48 6,3 C 4,4 C 1,7 C 85 % 0 lf 1024,5 hPa 0,0 l/m 0 min 0 min 0 W/m 4,5 km/h (1 Bft) 97,87 %
30.01.2018 17:50 6,2 C 4,4 C 1,7 C 84 % 0 lf 1024,5 hPa 0,0 l/m 0 min 0 min 0 W/m 2,3 km/h (1 Bft) 97,87 %
30.01.2018 17:52 6,2 C 4,4 C 1,7 C 84 % 0 lf 1024,5 hPa 0,0 l/m 0 min 0 min 0 W/m 2,3 km/h (1 Bft) 100,00 %
30.01.2018 17:54 6,1 C 4,4 C 1,1 C 84 % 0 lf 1024,4 hPa 0,0 l/m 0 min 0 min 0 W/m 4,5 km/h (1 Bft) 100,00 %
30.01.2018 17:56 6,1 C 4,4 C 1,1 C 85 % 0 lf 1024,4 hPa 0,0 l/m 0 min 0 min 0 W/m 4,5 km/h (1 Bft) 100,00 %
30.01.2018 17:58 6,0 C 4,4 C 1,1 C 85 % 0 lf 1024,4 hPa 0,0 l/m 0 min 0 min 0 W/m 4,5 km/h (1 Bft) 97,87 %
30.01.2018 18:00 5,9 C 4,4 C 1,1 C 85 % 0 lf 1024,4 hPa 0,0 l/m 0 min 0 min 0 W/m 4,5 km/h (1 Bft) 97,87 %
30.01.2018 18:02 5,9 C 4,4 C 1,1 C 85 % 0 lf 1024,4 hPa 0,0 l/m 0 min 0 min 0 W/m 4,5 km/h (1 Bft) 97,83 %
30.01.2018 18:04 5,9 C 3,9 C 1,1 C 85 % 0 lf 1024,4 hPa 0,0 l/m 0 min 0 min 0 W/m 4,5 km/h (1 Bft) 100,00 %
30.01.2018 18:06 5,8 C 3,9 C 1,1 C 85 % 0 lf 1024,4 hPa 0,0 l/m 0 min 0 min 0 W/m 4,5 km/h (1 Bft) 97,87 %
30.01.2018 18:08 5,8 C 3,9 C 1,1 C 86 % 0 lf 1024,3 hPa 0,0 l/m 0 min 0 min 0 W/m 6,8 km/h (2 Bft) 100,00 %
30.01.2018 18:10 5,7 C 3,9 C 1,1 C 86 % 0 lf 1024,3 hPa 0,0 l/m 0 min 0 min 0 W/m 4,5 km/h (1 Bft) 100,00 %
30.01.2018 18:12 5,7 C 3,9 C 1,1 C 86 % 0 lf 1024,3 hPa 0,0 l/m 0 min 0 min 0 W/m 4,5 km/h (1 Bft) 100,00 %
30.01.2018 18:14 5,6 C 3,3 C 1,1 C 85 % 0 lf 1024,3 hPa 0,0 l/m 0 min 0 min 0 W/m 4,5 km/h (1 Bft) 100,00 %
30.01.2018 18:16 5,5 C 3,3 C 1,1 C 85 % 0 lf 1024,3 hPa 0,0 l/m 0 min 0 min 0 W/m 4,5 km/h (1 Bft) 100,00 %
30.01.2018 18:18 5,4 C 3,3 C 1,1 C 85 % 0 lf 1024,2 hPa 0,0 l/m 0 min 0 min 0 W/m 4,5 km/h (1 Bft) 100,00 %
30.01.2018 18:20 5,4 C 3,9 C 0,6 C 86 % 1 lf 1024,2 hPa 0,0 l/m 0 min 0 min 0 W/m 4,5 km/h (1 Bft) 100,00 %
30.01.2018 18:22 5,3 C 3,9 C 0,6 C 86 % 1 lf 1024,2 hPa 0,0 l/m 0 min 0 min 0 W/m 2,3 km/h (1 Bft) 97,87 %
30.01.2018 18:24 5,3 C 3,9 C 0,6 C 86 % 1 lf 1024,2 hPa 0,0 l/m 0 min 0 min 0 W/m 4,5 km/h (1 Bft) 100,00 %
30.01.2018 18:26 5,2 C 3,9 C 1,1 C 86 % 1 lf 1024,1 hPa 0,0 l/m 0 min 0 min 0 W/m 4,5 km/h (1 Bft) 97,83 %
30.01.2018 18:28 5,2 C 3,9 C 1,1 C 86 % 1 lf 1024,1 hPa 0,0 l/m 0 min 0 min 0 W/m 4,5 km/h (1 Bft) 97,87 %
30.01.2018 18:30 5,2 C 3,9 C 1,1 C 87 % 1 lf 1024,1 hPa 0,0 l/m 0 min 0 min 0 W/m 4,5 km/h (1 Bft) 100,00 %
30.01.2018 18:32 5,1 C 3,9 C 1,1 C 87 % 1 lf 1024,1 hPa 0,0 l/m 0 min 0 min 0 W/m 6,8 km/h (2 Bft) 97,87 %
30.01.2018 18:34 5,1 C 3,9 C 0,6 C 87 % 1 lf 1024,0 hPa 0,0 l/m 0 min 0 min 0 W/m 4,5 km/h (1 Bft) 100,00 %
30.01.2018 18:36 5,0 C 3,9 C 0,6 C 87 % 1 lf 1024,0 hPa 0,0 l/m 0 min 0 min 0 W/m 4,5 km/h (1 Bft) 100,00 %
30.01.2018 18:38 5,0 C 3,9 C 0,6 C 87 % 1 lf 1023,9 hPa 0,0 l/m 0 min 0 min 0 W/m 4,5 km/h (1 Bft) 97,83 %
30.01.2018 18:40 4,9 C 3,9 C 0,6 C 87 % 1 lf 1023,9 hPa 0,0 l/m 0 min 0 min 0 W/m 4,5 km/h (1 Bft) 100,00 %
30.01.2018 18:42 4,9 C 3,3 C 0,6 C 88 % 1 lf 1023,8 hPa 0,0 l/m 0 min 0 min 0 W/m 4,5 km/h (1 Bft) 93,62 %
30.01.2018 18:44 4,8 C 3,3 C 0,6 C 88 % 1 lf 1023,8 hPa 0,0 l/m 0 min 0 min 0 W/m 4,5 km/h (1 Bft) 100,00 %
30.01.2018 18:46 4,8 C 3,3 C 0,6 C 88 % 1 lf 1023,8 hPa 0,0 l/m 0 min 0 min 0 W/m 4,5 km/h (1 Bft) 100,00 %
30.01.2018 18:48 4,7 C 3,3 C 0,6 C 88 % 1 lf 1023,8 hPa 0,0 l/m 0 min 0 min 0 W/m 4,5 km/h (1 Bft) 97,87 %
30.01.2018 18:50 4,7 C 3,3 C 1,1 C 88 % 1 lf 1023,8 hPa 0,0 l/m 0 min 0 min 0 W/m 6,8 km/h (2 Bft) 95,65 %
30.01.2018 18:52 4,7 C 3,9 C 1,1 C 88 % 1 lf 1023,7 hPa 0,0 l/m 0 min 0 min 0 W/m 4,5 km/h (1 Bft) 97,87 %
30.01.2018 18:54 4,7 C 3,9 C 1,1 C 88 % 1 lf 1023,7 hPa 0,0 l/m 0 min 0 min 0 W/m 4,5 km/h (1 Bft) 95,74 %
30.01.2018 18:56 4,6 C 3,9 C 1,1 C 88 % 1 lf 1023,6 hPa 0,0 l/m 0 min 0 min 0 W/m 4,5 km/h (1 Bft) 93,62 %
30.01.2018 18:58 4,6 C 3,9 C 1,1 C 89 % 1 lf 1023,6 hPa 0,0 l/m 0 min 0 min 0 W/m 6,8 km/h (2 Bft) 97,87 %
30.01.2018 19:00 4,5 C 3,9 C 1,1 C 89 % 1 lf 1023,5 hPa 0,0 l/m 0 min 0 min 0 W/m 6,8 km/h (2 Bft) 91,49 %
30.01.2018 19:02 4,5 C 3,9 C 1,1 C 89 % 1 lf 1023,5 hPa 0,0 l/m 0 min 0 min 0 W/m 6,8 km/h (2 Bft) 91,30 %
30.01.2018 19:04 4,4 C 3,9 C 1,1 C 89 % 1 lf 1023,5 hPa 0,0 l/m 0 min 0 min 0 W/m 6,8 km/h (2 Bft) 93,62 %
30.01.2018 19:06 4,4 C 3,9 C 1,1 C 89 % 0 lf 1023,4 hPa 0,0 l/m 0 min 0 min 0 W/m 6,8 km/h (2 Bft) 91,49 %
30.01.2018 19:08 4,4 C 3,9 C 1,1 C 89 % 0 lf 1023,4 hPa 0,0 l/m 0 min 0 min 0 W/m 6,8 km/h (2 Bft) 93,62 %
30.01.2018 19:10 4,4 C 3,9 C 1,1 C 90 % 0 lf 1023,3 hPa 0,0 l/m 0 min 0 min 0 W/m 6,8 km/h (2 Bft) 95,74 %
30.01.2018 19:12 4,4 C 3,9 C 1,1 C 90 % 0 lf 1023,3 hPa 0,0 l/m 0 min 0 min 0 W/m 9,0 km/h (2 Bft) 91,30 %
30.01.2018 19:14 4,3 C 3,9 C 1,1 C 90 % 0 lf 1023,3 hPa 0,0 l/m 0 min 0 min 0 W/m 6,8 km/h (2 Bft) 95,74 %
30.01.2018 19:16 4,3 C 3,9 C 1,1 C 90 % 0 lf 1023,2 hPa 0,0 l/m 0 min 0 min 0 W/m 6,8 km/h (2 Bft) 93,62 %
30.01.2018 19:18 4,3 C 3,9 C 1,1 C 90 % 0 lf 1023,2 hPa 0,0 l/m 0 min 0 min 0 W/m 6,8 km/h (2 Bft) 93,62 %
30.01.2018 19:20 4,3 C 3,9 C 1,1 C 90 % 0 lf 1023,3 hPa 0,0 l/m 0 min 0 min 0 W/m 6,8 km/h (2 Bft) 93,62 %
30.01.2018 19:22 4,3 C 3,9 C 1,7 C 90 % 0 lf 1023,3 hPa 0,0 l/m 0 min 0 min 0 W/m 9,0 km/h (2 Bft) 93,62 %
30.01.2018 19:24 4,3 C 3,9 C 1,7 C 90 % 0 lf 1023,2 hPa 0,0 l/m 0 min 0 min 0 W/m 6,8 km/h (2 Bft) 93,48 %
30.01.2018 19:26 4,2 C 3,9 C 1,7 C 90 % 0 lf 1023,2 hPa 0,0 l/m 0 min 0 min 0 W/m 6,8 km/h (2 Bft) 95,24 %
30.01.2018 19:28 4,2 C 3,9 C 1,7 C 90 % 0 lf 1023,2 hPa 0,0 l/m 0 min 0 min 0 W/m 4,5 km/h (1 Bft) 95,65 %
30.01.2018 19:30 4,2 C 4,4 C 1,7 C 90 % 0 lf 1023,2 hPa 0,0 l/m 0 min 0 min 0 W/m 6,8 km/h (2 Bft) 91,49 %
30.01.2018 19:32 4,2 C 4,4 C 1,7 C 90 % 0 lf 1023,1 hPa 0,0 l/m 0 min 0 min 0 W/m 6,8 km/h (2 Bft) 91,49 %
30.01.2018 19:34 4,2 C 4,4 C 1,7 C 91 % 0 lf 1023,1 hPa 0,0 l/m 0 min 0 min 0 W/m 6,8 km/h (2 Bft) 95,65 %
30.01.2018 19:36 4,2 C 4,4 C 1,7 C 91 % 0 lf 1023,1 hPa 0,0 l/m 0 min 0 min 0 W/m 4,5 km/h (1 Bft) 97,87 %
30.01.2018 19:38 4,2 C 4,4 C 2,2 C 91 % 0 lf 1023,0 hPa 0,0 l/m 0 min 0 min 0 W/m 4,5 km/h (1 Bft) 95,74 %
30.01.2018 19:40 4,2 C 4,4 C 2,2 C 91 % 0 lf 1023,0 hPa 0,0 l/m 0 min 0 min 0 W/m 6,8 km/h (2 Bft) 91,49 %
30.01.2018 19:42 4,2 C 3,9 C 2,2 C 91 % 0 lf 1023,0 hPa 0,0 l/m 0 min 0 min 0 W/m 6,8 km/h (2 Bft) 97,87 %
30.01.2018 19:44 4,2 C 3,9 C 1,7 C 91 % 0 lf 1022,9 hPa 0,0 l/m 0 min 0 min 0 W/m 6,8 km/h (2 Bft) 93,62 %
30.01.2018 19:46 4,2 C 3,9 C 1,7 C 91 % 0 lf 1022,9 hPa 0,0 l/m 0 min 0 min 0 W/m 6,8 km/h (2 Bft) 95,65 %
30.01.2018 19:48 4,2 C 3,9 C 1,7 C 91 % 0 lf 1022,9 hPa 0,0 l/m 0 min 0 min 0 W/m 4,5 km/h (1 Bft) 95,74 %
30.01.2018 19:50 4,2 C 3,9 C 1,7 C 91 % 0 lf 1022,8 hPa 0,0 l/m 0 min 0 min 0 W/m 6,8 km/h (2 Bft) 91,53 %
30.01.2018 19:52 4,2 C 3,9 C 1,7 C 91 % 0 lf 1022,8 hPa 0,0 l/m 0 min 0 min 0 W/m 4,5 km/h (1 Bft) 94,29 %
30.01.2018 19:54 4,2 C 3,9 C 1,7 C 91 % 0 lf 1022,8 hPa 0,0 l/m 0 min 0 min 0 W/m 6,8 km/h (2 Bft) 95,74 %
30.01.2018 19:56 4,2 C 3,9 C 1,7 C 91 % 0 lf 1022,8 hPa 0,0 l/m 0 min 0 min 0 W/m 6,8 km/h (2 Bft) 93,88 %
30.01.2018 19:58 4,2 C 3,9 C 1,7 C 91 % 0 lf 1022,7 hPa 0,0 l/m 0 min 0 min 0 W/m 6,8 km/h (2 Bft) 93,48 %
30.01.2018 20:00 4,2 C 3,9 C 1,7 C 91 % 0 lf 1022,8 hPa 0,0 l/m 0 min 0 min 0 W/m 4,5 km/h (1 Bft) 93,62 %
30.01.2018 20:02 4,2 C 3,9 C 2,2 C 91 % 0 lf 1022,8 hPa 0,0 l/m 0 min 0 min 0 W/m 6,8 km/h (2 Bft) 91,49 %
30.01.2018 20:04 4,2 C 4,4 C 2,2 C 91 % 0 lf 1022,8 hPa 0,0 l/m 0 min 0 min 0 W/m 6,8 km/h (2 Bft) 95,74 %
30.01.2018 20:06 4,2 C 4,4 C 2,2 C 92 % 0 lf 1022,8 hPa 0,0 l/m 0 min 0 min 0 W/m 6,8 km/h (2 Bft) 93,62 %
30.01.2018 20:08 4,2 C 4,4 C 2,2 C 92 % 0 lf 1022,8 hPa 0,0 l/m 0 min 0 min 0 W/m 6,8 km/h (2 Bft) 97,87 %
30.01.2018 20:10 4,2 C 4,4 C 2,2 C 92 % 0 lf 1022,7 hPa 0,0 l/m 0 min 0 min 0 W/m 4,5 km/h (1 Bft) 97,83 %
30.01.2018 20:12 4,2 C 4,4 C 2,8 C 92 % 0 lf 1022,6 hPa 0,0 l/m 0 min 0 min 0 W/m 6,8 km/h (2 Bft) 95,74 %
30.01.2018 20:14 4,2 C 4,4 C 2,8 C 92 % 0 lf 1022,6 hPa 0,0 l/m 0 min 0 min 0 W/m 4,5 km/h (1 Bft) 95,74 %
30.01.2018 20:16 4,2 C 4,4 C 2,8 C 92 % 0 lf 1022,6 hPa 0,0 l/m 0 min 0 min 0 W/m 6,8 km/h (2 Bft) 95,74 %
30.01.2018 20:18 4,2 C 4,4 C 2,8 C 92 % 0 lf 1022,6 hPa 0,0 l/m 0 min 0 min 0 W/m 4,5 km/h (1 Bft) 97,87 %
30.01.2018 20:20 4,2 C 4,4 C 2,8 C 92 % 0 lf 1022,6 hPa 0,0 l/m 0 min 0 min 0 W/m 6,8 km/h (2 Bft) 94,83 %
30.01.2018 20:22 4,2 C 4,4 C 2,8 C 92 % 0 lf 1022,6 hPa 0,0 l/m 0 min 0 min 0 W/m 4,5 km/h (1 Bft) 91,43 %
30.01.2018 20:24 4,2 C 4,4 C 2,8 C 92 % 0 lf 1022,6 hPa 0,0 l/m 0 min 0 min 0 W/m 6,8 km/h (2 Bft) 97,87 %
30.01.2018 20:26 4,2 C 4,4 C 2,8 C 92 % 0 lf 1022,5 hPa 0,0 l/m 0 min 0 min 0 W/m 6,8 km/h (2 Bft) 95,74 %
30.01.2018 20:28 4,2 C 4,4 C 2,8 C 92 % 0 lf 1022,5 hPa 0,0 l/m 0 min 0 min 0 W/m 9,0 km/h (2 Bft) 97,87 %
30.01.2018 20:30 4,2 C 4,4 C 2,8 C 92 % 0 lf 1022,4 hPa 0,0 l/m 0 min 0 min 0 W/m 9,0 km/h (2 Bft) 95,74 %
30.01.2018 20:32 4,3 C 3,9 C 2,2 C 92 % 0 lf 1022,5 hPa 0,0 l/m 0 min 0 min 0 W/m 9,0 km/h (2 Bft) 100,00 %
30.01.2018 20:34 4,3 C 3,9 C 2,2 C 92 % 0 lf 1022,3 hPa 0,0 l/m 0 min 0 min 0 W/m 9,0 km/h (2 Bft) 95,74 %
30.01.2018 20:36 4,3 C 3,3 C 1,7 C 92 % 0 lf 1022,3 hPa 0,0 l/m 0 min 0 min 0 W/m 9,0 km/h (2 Bft) 97,87 %
30.01.2018 20:38 4,3 C 3,3 C 1,7 C 92 % 0 lf 1022,2 hPa 0,0 l/m 0 min 0 min 0 W/m 6,8 km/h (2 Bft) 100,00 %
30.01.2018 20:40 4,2 C 3,3 C 1,7 C 92 % 0 lf 1022,2 hPa 0,0 l/m 0 min 0 min 0 W/m 6,8 km/h (2 Bft) 100,00 %
30.01.2018 20:42 4,2 C 3,9 C 1,7 C 92 % 0 lf 1022,0 hPa 0,0 l/m 0 min 0 min 0 W/m 6,8 km/h (2 Bft) 100,00 %
30.01.2018 20:44 4,2 C 3,9 C 1,7 C 92 % 0 lf 1022,0 hPa 0,0 l/m 0 min 0 min 0 W/m 9,0 km/h (2 Bft) 95,65 %
30.01.2018 20:46 4,2 C 3,9 C 1,7 C 92 % 0 lf 1021,8 hPa 0,0 l/m 0 min 0 min 0 W/m 9,0 km/h (2 Bft) 97,87 %
30.01.2018 20:48 4,2 C 3,9 C 1,7 C 92 % 0 lf 1021,8 hPa 0,0 l/m 0 min 0 min 0 W/m 6,8 km/h (2 Bft) 97,87 %
30.01.2018 20:50 4,2 C 3,9 C 1,7 C 92 % 0 lf 1021,8 hPa 0,0 l/m 0 min 0 min 0 W/m 6,8 km/h (2 Bft) 98,31 %
30.01.2018 20:52 4,2 C 3,9 C 1,1 C 92 % 0 lf 1021,8 hPa 0,0 l/m 0 min 0 min 0 W/m 6,8 km/h (2 Bft) 97,14 %
30.01.2018 20:54 4,2 C 3,3 C 1,1 C 92 % 0 lf 1021,8 hPa 0,0 l/m 0 min 0 min 0 W/m 11,3 km/h (2 Bft) 97,87 %
30.01.2018 20:56 4,2 C 3,3 C 1,1 C 92 % 0 lf 1021,9 hPa 0,0 l/m 0 min 0 min 0 W/m 9,0 km/h (2 Bft) 97,83 %
30.01.2018 20:58 4,1 C 3,3 C 1,1 C 92 % 0 lf 1021,9 hPa 0,0 l/m 0 min 0 min 0 W/m 6,8 km/h (2 Bft) 95,74 %
30.01.2018 21:00 4,1 C 3,3 C 1,7 C 92 % 0 lf 1021,9 hPa 0,0 l/m 0 min 0 min 0 W/m 9,0 km/h (2 Bft) 97,87 %
30.01.2018 21:02 4,1 C 3,3 C 1,1 C 92 % 0 lf 1021,9 hPa 0,0 l/m 0 min 0 min 0 W/m 6,8 km/h (2 Bft) 95,74 %
30.01.2018 21:04 4,1 C 3,3 C 1,1 C 92 % 0 lf 1021,9 hPa 0,0 l/m 0 min 0 min 0 W/m 6,8 km/h (2 Bft) 93,62 %
30.01.2018 21:06 4,1 C 3,3 C 1,1 C 92 % 0 lf 1021,9 hPa 0,0 l/m 0 min 0 min 0 W/m 0,0 km/h (0 Bft) 95,74 %
30.01.2018 21:08 4,1 C 3,3 C 1,1 C 92 % 0 lf 1021,9 hPa 0,0 l/m 0 min 0 min 0 W/m 0,0 km/h (0 Bft) 97,83 %
30.01.2018 21:10 4,0 C 3,3 C 0,6 C 92 % 0 lf 1021,9 hPa 0,0 l/m 0 min 0 min 0 W/m 0,0 km/h (0 Bft) 97,87 %
30.01.2018 21:12 4,0 C 3,3 C 0,6 C 92 % 0 lf 1021,8 hPa 0,0 l/m 0 min 0 min 0 W/m 0,0 km/h (0 Bft) 95,74 %
30.01.2018 21:14 4,0 C 3,3 C 0,6 C 92 % 0 lf 1021,8 hPa 0,0 l/m 0 min 0 min 0 W/m 0,0 km/h (0 Bft) 97,87 %
30.01.2018 21:16 3,9 C 3,3 C 0,6 C 92 % 0 lf 1021,8 hPa 0,0 l/m 0 min 0 min 0 W/m 6,8 km/h (2 Bft) 100,00 %
30.01.2018 21:18 3,9 C 3,3 C 0,6 C 92 % 0 lf 1021,7 hPa 0,0 l/m 0 min 0 min 0 W/m 6,8 km/h (2 Bft) 95,74 %
30.01.2018 21:20 3,9 C 2,8 C 0,6 C 92 % 1 lf 1021,7 hPa 0,0 l/m 0 min 0 min 0 W/m 4,5 km/h (1 Bft) 100,00 %
30.01.2018 21:22 3,9 C 2,8 C 0,6 C 92 % 1 lf 1021,6 hPa 0,0 l/m 0 min 0 min 0 W/m 4,5 km/h (1 Bft) 100,00 %
30.01.2018 21:24 3,9 C 2,8 C 0,6 C 92 % 1 lf 1021,6 hPa 0,0 l/m 0 min 0 min 0 W/m 6,8 km/h (2 Bft) 100,00 %
30.01.2018 21:26 3,8 C 2,8 C 0,6 C 92 % 1 lf 1021,5 hPa 0,0 l/m 0 min 0 min 0 W/m 6,8 km/h (2 Bft) 97,87 %
30.01.2018 21:28 3,8 C 2,8 C 0,6 C 92 % 1 lf 1021,5 hPa 0,0 l/m 0 min 0 min 0 W/m 4,5 km/h (1 Bft) 100,00 %
30.01.2018 21:30 3,8 C 2,8 C 0,6 C 92 % 1 lf 1021,5 hPa 0,0 l/m 0 min 0 min 0 W/m 4,5 km/h (1 Bft) 95,74 %
30.01.2018 21:32 3,8 C 2,8 C 0,6 C 92 % 1 lf 1021,4 hPa 0,0 l/m 0 min 0 min 0 W/m 4,5 km/h (1 Bft) 97,83 %
30.01.2018 21:34 3,7 C 2,8 C 0,6 C 92 % 1 lf 1021,5 hPa 0,0 l/m 0 min 0 min 0 W/m 4,5 km/h (1 Bft) 95,74 %
30.01.2018 21:36 3,7 C 3,3 C 1,1 C 92 % 1 lf 1021,4 hPa 0,0 l/m 0 min 0 min 0 W/m 4,5 km/h (1 Bft) 97,87 %
30.01.2018 21:38 3,7 C 3,3 C 1,1 C 92 % 1 lf 1021,4 hPa 0,0 l/m 0 min 0 min 0 W/m 6,8 km/h (2 Bft) 97,87 %
30.01.2018 21:40 3,7 C 3,3 C 1,1 C 92 % 0 lf 1021,4 hPa 0,0 l/m 0 min 0 min 0 W/m 9,0 km/h (2 Bft) 97,87 %
30.01.2018 21:42 3,7 C 3,3 C 1,7 C 92 % 0 lf 1021,3 hPa 0,0 l/m 0 min 0 min 0 W/m 6,8 km/h (2 Bft) 97,83 %
30.01.2018 21:44 3,7 C 3,9 C 1,7 C 92 % 0 lf 1021,3 hPa 0,0 l/m 0 min 0 min 0 W/m 9,0 km/h (2 Bft) 95,74 %
30.01.2018 21:46 3,7 C 3,3 C 1,7 C 92 % 0 lf 1021,2 hPa 0,0 l/m 0 min 0 min 0 W/m 11,3 km/h (2 Bft) 95,74 %
30.01.2018 21:48 3,7 C 3,3 C 1,7 C 92 % 0 lf 1021,2 hPa 0,0 l/m 0 min 0 min 0 W/m 9,0 km/h (2 Bft) 97,87 %
30.01.2018 21:50 3,7 C 3,3 C 1,7 C 92 % 0 lf 1021,2 hPa 0,0 l/m 0 min 0 min 0 W/m 13,5 km/h (3 Bft) 96,61 %
30.01.2018 21:52 3,7 C 3,3 C 1,7 C 93 % 0 lf 1021,2 hPa 0,0 l/m 0 min 0 min 0 W/m 9,0 km/h (2 Bft) 100,00 %
30.01.2018 21:54 3,7 C 3,3 C 1,1 C 92 % 0 lf 1021,2 hPa 0,0 l/m 0 min 0 min 0 W/m 9,0 km/h (2 Bft) 97,83 %
30.01.2018 21:56 3,7 C 3,3 C 1,7 C 92 % 0 lf 1021,2 hPa 0,0 l/m 0 min 0 min 0 W/m 9,0 km/h (2 Bft) 97,87 %
30.01.2018 21:58 3,6 C 3,3 C 1,7 C 92 % 0 lf 1021,1 hPa 0,0 l/m 0 min 0 min 0 W/m 6,8 km/h (2 Bft) 95,74 %
30.01.2018 22:00 3,6 C 3,3 C 1,1 C 93 % 0 lf 1021,1 hPa 0,0 l/m 0 min 0 min 0 W/m 9,0 km/h (2 Bft) 95,74 %
30.01.2018 22:02 3,6 C 3,3 C 1,7 C 93 % 0 lf 1021,0 hPa 0,0 l/m 0 min 0 min 0 W/m 11,3 km/h (2 Bft) 95,74 %
30.01.2018 22:04 3,6 C 3,9 C 1,7 C 93 % 0 lf 1020,9 hPa 0,0 l/m 0 min 0 min 0 W/m 9,0 km/h (2 Bft) 95,74 %
30.01.2018 22:06 3,6 C 3,9 C 1,7 C 93 % 0 lf 1020,9 hPa 0,0 l/m 0 min 0 min 0 W/m 6,8 km/h (2 Bft) 97,83 %
30.01.2018 22:08 3,6 C 3,9 C 1,7 C 93 % 0 lf 1020,9 hPa 0,0 l/m 0 min 0 min 0 W/m 6,8 km/h (2 Bft) 97,87 %
30.01.2018 22:10 3,6 C 3,9 C 2,2 C 93 % 0 lf 1020,9 hPa 0,0 l/m 0 min 0 min 0 W/m 6,8 km/h (2 Bft) 97,87 %
30.01.2018 22:12 3,7 C 3,9 C 2,2 C 93 % 0 lf 1020,9 hPa 0,0 l/m 0 min 0 min 0 W/m 4,5 km/h (1 Bft) 100,00 %
30.01.2018 22:14 3,7 C 3,9 C 2,2 C 93 % 0 lf 1020,9 hPa 0,0 l/m 0 min 0 min 0 W/m 6,8 km/h (2 Bft) 95,74 %
30.01.2018 22:16 3,7 C 3,9 C 2,2 C 93 % 0 lf 1020,9 hPa 0,0 l/m 0 min 0 min 0 W/m 9,0 km/h (2 Bft) 97,87 %
30.01.2018 22:18 3,7 C 3,9 C 2,8 C 93 % 0 lf 1020,8 hPa 0,0 l/m 0 min 0 min 0 W/m 9,0 km/h (2 Bft) 100,00 %
30.01.2018 22:20 3,7 C 3,9 C 2,8 C 93 % 0 lf 1020,7 hPa 0,0 l/m 0 min 0 min 0 W/m 9,0 km/h (2 Bft) 96,61 %
30.01.2018 22:22 3,7 C 3,9 C 2,8 C 93 % 0 lf 1020,7 hPa 0,0 l/m 0 min 0 min 0 W/m 6,8 km/h (2 Bft) 100,00 %
30.01.2018 22:24 3,7 C 3,9 C 2,8 C 93 % 0 lf 1020,7 hPa 0,0 l/m 0 min 0 min 0 W/m 6,8 km/h (2 Bft) 100,00 %
30.01.2018 22:26 3,7 C 3,9 C 2,8 C 93 % 0 lf 1020,6 hPa 0,0 l/m 0 min 0 min 0 W/m 11,3 km/h (2 Bft) 100,00 %
30.01.2018 22:28 3,8 C 3,9 C 2,8 C 93 % 0 lf 1020,5 hPa 0,0 l/m 0 min 0 min 0 W/m 9,0 km/h (2 Bft) 100,00 %
30.01.2018 22:30 3,8 C 3,9 C 2,8 C 93 % 0 lf 1020,4 hPa 0,0 l/m 0 min 0 min 0 W/m 11,3 km/h (2 Bft) 100,00 %
30.01.2018 22:32 3,8 C 3,9 C 2,8 C 93 % 0 lf 1020,4 hPa 0,0 l/m 0 min 0 min 0 W/m 9,0 km/h (2 Bft) 97,87 %
30.01.2018 22:34 3,8 C 3,9 C 2,8 C 93 % 0 lf 1020,4 hPa 0,0 l/m 0 min 0 min 0 W/m 11,3 km/h (2 Bft) 100,00 %
30.01.2018 22:36 3,8 C 4,4 C 2,8 C 93 % 0 lf 1020,4 hPa 0,0 l/m 0 min 0 min 0 W/m 11,3 km/h (2 Bft) 100,00 %
30.01.2018 22:38 3,8 C 4,4 C 2,8 C 93 % 0 lf 1020,3 hPa 0,0 l/m 0 min 0 min 0 W/m 9,0 km/h (2 Bft) 97,87 %
30.01.2018 22:40 3,9 C 4,4 C 2,8 C 93 % 0 lf 1020,3 hPa 0,0 l/m 0 min 0 min 0 W/m 11,3 km/h (2 Bft) 93,62 %
30.01.2018 22:42 3,9 C 4,4 C 2,8 C 93 % 0 lf 1020,3 hPa 0,0 l/m 0 min 0 min 0 W/m 13,5 km/h (3 Bft) 95,65 %
30.01.2018 22:44 3,9 C 4,4 C 2,8 C 93 % 0 lf 1020,2 hPa 0,0 l/m 0 min 0 min 0 W/m 11,3 km/h (2 Bft) 97,87 %
30.01.2018 22:46 3,9 C 4,4 C 2,8 C 93 % 0 lf 1020,1 hPa 0,0 l/m 0 min 0 min 0 W/m 13,5 km/h (3 Bft) 95,74 %
30.01.2018 22:48 3,9 C 4,4 C 2,8 C 93 % 0 lf 1020,1 hPa 0,0 l/m 0 min 0 min 0 W/m 11,3 km/h (2 Bft) 93,62 %
30.01.2018 22:50 4,0 C 4,4 C 3,3 C 93 % 0 lf 1020,0 hPa 0,0 l/m 0 min 0 min 0 W/m 13,5 km/h (3 Bft) 91,38 %
30.01.2018 22:52 4,0 C 4,4 C 3,3 C 93 % 0 lf 1019,9 hPa 0,0 l/m 0 min 0 min 0 W/m 18,0 km/h (3 Bft) 91,43 %
30.01.2018 22:54 4,0 C 4,4 C 3,3 C 93 % 0 lf 1019,9 hPa 0,0 l/m 0 min 0 min 0 W/m 13,5 km/h (3 Bft) 93,62 %
30.01.2018 22:56 4,1 C 4,4 C 3,3 C 93 % 0 lf 1019,9 hPa 0,0 l/m 0 min 0 min 0 W/m 11,3 km/h (2 Bft) 95,74 %
30.01.2018 22:58 4,1 C 4,4 C 3,3 C 93 % 0 lf 1019,8 hPa 0,0 l/m 0 min 0 min 0 W/m 15,8 km/h (3 Bft) 91,49 %
30.01.2018 23:00 4,1 C 4,4 C 3,3 C 93 % 0 lf 1019,8 hPa 0,0 l/m 0 min 0 min 0 W/m 15,8 km/h (3 Bft) 91,49 %
30.01.2018 23:02 4,1 C 4,4 C 3,3 C 93 % 0 lf 1019,7 hPa 0,0 l/m 0 min 0 min 0 W/m 11,3 km/h (2 Bft) 93,62 %
30.01.2018 23:04 4,2 C 4,4 C 3,3 C 93 % 0 lf 1019,7 hPa 0,0 l/m 0 min 0 min 0 W/m 11,3 km/h (2 Bft) 91,30 %
30.01.2018 23:06 4,2 C 4,4 C 3,3 C 93 % 0 lf 1019,6 hPa 0,0 l/m 0 min 0 min 0 W/m 13,5 km/h (3 Bft) 93,62 %
30.01.2018 23:08 4,2 C 4,4 C 3,3 C 92 % 0 lf 1019,6 hPa 0,0 l/m 0 min 0 min 0 W/m 13,5 km/h (3 Bft) 91,49 %
30.01.2018 23:10 4,2 C 4,4 C 3,3 C 92 % 0 lf 1019,6 hPa 0,0 l/m 0 min 0 min 0 W/m 11,3 km/h (2 Bft) 93,62 %
30.01.2018 23:12 4,3 C 4,4 C 3,3 C 92 % 0 lf 1019,4 hPa 0,0 l/m 0 min 0 min 0 W/m 13,5 km/h (3 Bft) 89,36 %
30.01.2018 23:14 4,3 C 4,4 C 3,3 C 92 % 0 lf 1019,4 hPa 0,0 l/m 0 min 0 min 0 W/m 11,3 km/h (2 Bft) 95,74 %
30.01.2018 23:16 4,3 C 4,4 C 3,3 C 92 % 0 lf 1019,4 hPa 0,0 l/m 0 min 0 min 0 W/m 11,3 km/h (2 Bft) 95,65 %
30.01.2018 23:18 4,3 C 4,4 C 3,3 C 92 % 0 lf 1019,3 hPa 0,0 l/m 0 min 0 min 0 W/m 6,8 km/h (2 Bft) 95,74 %
30.01.2018 23:20 4,3 C 4,4 C 3,3 C 92 % 0 lf 1019,3 hPa 0,0 l/m 0 min 0 min 0 W/m 13,5 km/h (3 Bft) 93,22 %
30.01.2018 23:22 4,4 C 4,4 C 3,3 C 92 % 0 lf 1019,3 hPa 0,0 l/m 0 min 0 min 0 W/m 13,5 km/h (3 Bft) 100,00 %
30.01.2018 23:24 4,4 C 4,4 C 3,3 C 92 % 0 lf 1019,2 hPa 0,0 l/m 0 min 0 min 0 W/m 13,5 km/h (3 Bft) 93,62 %
30.01.2018 23:26 4,4 C 4,4 C 3,3 C 92 % 0 lf 1019,2 hPa 0,0 l/m 0 min 0 min 0 W/m 13,5 km/h (3 Bft) 93,62 %
30.01.2018 23:28 4,4 C 4,4 C 3,3 C 92 % 0 lf 1019,0 hPa 0,0 l/m 0 min 0 min 0 W/m 13,5 km/h (3 Bft) 95,65 %
30.01.2018 23:30 4,4 C 4,4 C 3,3 C 92 % 0 lf 1019,0 hPa 0,0 l/m 0 min 0 min 0 W/m 18,0 km/h (3 Bft) 95,74 %
30.01.2018 23:32 4,5 C 4,4 C 2,8 C 91 % 0 lf 1019,0 hPa 0,0 l/m 0 min 0 min 0 W/m 18,0 km/h (3 Bft) 97,87 %
30.01.2018 23:34 4,5 C 4,4 C 3,3 C 91 % 0 lf 1019,0 hPa 0,0 l/m 0 min 0 min 0 W/m 13,5 km/h (3 Bft) 95,74 %
30.01.2018 23:36 4,5 C 4,4 C 3,3 C 91 % 0 lf 1018,9 hPa 0,0 l/m 0 min 0 min 0 W/m 13,5 km/h (3 Bft) 97,87 %
30.01.2018 23:38 4,5 C 4,4 C 3,3 C 91 % 0 lf 1018,9 hPa 0,0 l/m 0 min 0 min 0 W/m 18,0 km/h (3 Bft) 95,74 %
30.01.2018 23:40 4,6 C 4,4 C 3,3 C 91 % 0 lf 1018,8 hPa 0,0 l/m 0 min 0 min 0 W/m 11,3 km/h (2 Bft) 93,48 %
30.01.2018 23:42 4,6 C 4,4 C 3,3 C 91 % 0 lf 1018,9 hPa 0,0 l/m 0 min 0 min 0 W/m 11,3 km/h (2 Bft) 97,87 %
30.01.2018 23:44 4,6 C 4,4 C 3,3 C 91 % 0 lf 1018,9 hPa 0,0 l/m 0 min 0 min 0 W/m 11,3 km/h (2 Bft) 97,87 %
30.01.2018 23:46 4,6 C 5,0 C 3,3 C 91 % 0 lf 1018,8 hPa 0,0 l/m 0 min 0 min 0 W/m 13,5 km/h (3 Bft) 93,62 %
30.01.2018 23:48 4,6 C 5,0 C 3,3 C 91 % 0 lf 1018,8 hPa 0,0 l/m 0 min 0 min 0 W/m 9,0 km/h (2 Bft) 97,87 %
30.01.2018 23:50 4,6 C 5,0 C 3,3 C 91 % 0 lf 1018,8 hPa 0,0 l/m 0 min 0 min 0 W/m 15,8 km/h (3 Bft) 98,28 %
30.01.2018 23:52 4,7 C 5,0 C 3,3 C 91 % 0 lf 1018,7 hPa 0,0 l/m 0 min 0 min 0 W/m 15,8 km/h (3 Bft) 97,14 %
30.01.2018 23:54 4,7 C 5,0 C 3,3 C 91 % 0 lf 1018,7 hPa 0,0 l/m 0 min 0 min 0 W/m 11,3 km/h (2 Bft) 95,74 %
30.01.2018 23:56 4,7 C 4,4 C 3,3 C 91 % 0 lf 1018,7 hPa 0,0 l/m 0 min 0 min 0 W/m 9,0 km/h (2 Bft) 93,62 %
30.01.2018 23:58 4,7 C 4,4 C 3,3 C 91 % 0 lf 1018,6 hPa 0,0 l/m 0 min 0 min 0 W/m 11,3 km/h (2 Bft) 100,00 %
_ Min-Zeit 06:14 05:22 05:04 15:30 11:58 23:58 - - - - 02:04 16:06
Minimum _ 1,8 C 0,6 C -0,6 C 84 % 0 lf 1018,6 hPa - - - - 0,0 km/h (0 Bft) 86,96 %
_ Max-Zeit 15:26 13:56 13:54 12:00 00:00 10:34 00:00 09:08 00:00 12:20 12:24 00:40
Maximum _ 7,5 C 12,8 C 7,2 C 99 % 15 lf 1029,5 hPa 0,0 l/m 2 min 0 min 381 W/m 24,8 km/h
W-SW (4 Bft)
100,00 %
Durchschnitt _ 4,4 C 4,4 C 2,5 C 93 % 7 lf 1026,5 hPa #0,0 l/m #4:16 h #0 min. 130 W/m 9,4 km/h (2 Bft) 96,36 %
© 2018 W. Hausmann